EW4595 Weather Reports


Display with metric or nautical units.
time (UTC)temp
F
wind
direction
speed
MPH
gust
MPH
rain 1hr
in
rain 24hr
in
rain mn
in
humidity
%
barometer
mb
20260904171806 68 220 4.0 9.0 0.00 0.00 0.00 32 1018.6
20260904171703 69 226 4.0 9.0 0.00 0.00 0.00 32 1018.5
20260904171603 69 230 5.0 9.0 0.00 0.00 0.00 32 1018.4
20260904171503 69 230 5.0 9.0 0.00 0.00 0.00 32 1018.5
20260904171403 69 238 4.0 7.0 0.00 0.00 0.00 32 1018.4
20260904171303 69 241 5.0 7.0 0.00 0.00 0.00 32 1018.5
20260904171205 69 239 4.0 6.0 0.00 0.00 0.00 32 1018.4
20260904171120 69 246 2.0 4.0 0.00 0.00 0.00 32 1018.6
20260904171016 69 237 2.0 4.0 0.00 0.00 0.00 32 1018.6
20260904171003 69 230 2.0 4.0 0.00 0.00 0.00 32 1018.6
20260904170703 69 258 1.0 9.0 0.00 0.00 0.00 32 1018.6
20260904170603 69 258 2.0 9.0 0.00 0.00 0.00 31 1018.7
20260904170503 69 263 2.0 9.0 0.00 0.00 0.00 32 1018.5
20260904170403 69 266 4.0 9.0 0.00 0.00 0.00 31 1018.6
20260904170303 69 252 2.0 9.0 0.00 0.00 0.00 32 1018.7
20260904170203 68 239 5.0 9.0 0.00 0.00 0.00 32 1018.6
20260904170003 69 238 3.0 8.0 0.00 0.00 0.00 33 1018.8
20260904165903 68 228 4.0 8.0 0.00 0.00 0.00 32 1019.0
20260904165817 68 230 4.0 8.0 0.00 0.00 0.00 32 1018.6
20260904165803 68 231 4.0 8.0 0.00 0.00 0.00 32 1018.6
20260904165703 68 239 3.0 8.0 0.00 0.00 0.00 32 1018.8
20260904165517 68 237 4.0 8.0 0.00 0.00 0.00 32 1018.7
20260904165503 68 235 6.0 8.0 0.00 0.00 0.00 31 1018.9
20260904165403 69 244 4.0 8.0 0.00 0.00 0.00 31 1018.8
20260904165317 69 248 2.0 8.0 0.00 0.00 0.00 32 1018.8
20260904165203 68 246 3.0 8.0 0.00 0.00 0.00 31 1018.8
20260904165118 68 236 6.0 11.0 0.00 0.00 0.00 30 1019.0
20260904165003 68 224 3.0 11.0 0.00 0.00 0.00 31 1019.2
20260904164803 68 202 4.0 11.0 0.00 0.00 0.00 31 1019.1
20260904164703 68 191 7.0 11.0 0.00 0.00 0.00 31 1018.9
20260904164617 68 190 4.0 11.0 0.00 0.00 0.00 31 1019.0
20260904164603 68 192 4.0 11.0 0.00 0.00 0.00 31 1019.0
20260904164503 69 203 5.0 11.0 0.00 0.00 0.00 31 1018.8
20260904164303 69 235 3.0 14.0 0.00 0.00 0.00 31 1019.1
20260904164203 68 251 1.0 14.0 0.00 0.00 0.00 31 1019.0
20260904164105 68 258 4.0 14.0 0.00 0.00 0.00 30 1019.0
20260904164018 68 265 7.0 14.0 0.00 0.00 0.00 30 1019.0
20260904164003 68 266 7.0 14.0 0.00 0.00 0.00 30 1019.0
20260904163903 69 280 8.0 14.0 0.00 0.00 0.00 33 1019.1
20260904163703 69 266 1.0 4.0 0.00 0.00 0.00 33 1019.1
20260904163603 68 257 2.0 6.0 0.00 0.00 0.00 34 1019.1
20260904163503 69 259 1.0 6.0 0.00 0.00 0.00 33 1018.9
20260904163403 68 256 2.0 6.0 0.00 0.00 0.00 34 1019.2
20260904163303 68 245 3.0 6.0 0.00 0.00 0.00 34 1019.3
20260904163203 68 249 3.0 6.0 0.00 0.00 0.00 34 1019.2
20260904163103 70 256 0.0 6.0 0.00 0.00 0.00 33 1019.2
20260904163003 69 248 2.0 6.0 0.00 0.00 0.00 34 1019.3
20260904162903 68 244 2.0 6.0 0.00 0.00 0.00 34 1019.5
20260904162803 68 259 2.0 6.0 0.00 0.00 0.00 34 1019.4
20260904162718 67 253 2.0 6.0 0.00 0.00 0.00 34 1019.5
20260904162703 68 253 3.0 6.0 0.00 0.00 0.00 35 1019.6
20260904162603 68 247 2.0 6.0 0.00 0.00 0.00 35 1019.5
20260904162403 68 249 2.0 6.0 0.00 0.00 0.00 34 1019.4
20260904162306 68 237 3.0 6.0 0.00 0.00 0.00 35 1019.4
20260904162204 68 237 2.0 6.0 0.00 0.00 0.00 35 1019.6
20260904162117 68 236 4.0 6.0 0.00 0.00 0.00 35 1019.6
20260904162103 68 238 4.0 6.0 0.00 0.00 0.00 35 1019.6
20260904162003 69 225 2.0 6.0 0.00 0.00 0.00 35 1019.6
20260904161803 68 246 1.0 8.0 0.00 0.00 0.00 35 1019.6
20260904161703 68 243 2.0 8.0 0.00 0.00 0.00 36 1019.9
20260904161603 68 254 3.0 8.0 0.00 0.00 0.00 36 1019.7
20260904161504 67 261 2.0 8.0 0.00 0.00 0.00 35 1019.7
20260904161403 67 253 4.0 8.0 0.00 0.00 0.00 35 1019.7
20260904161303 67 244 5.0 9.0 0.00 0.00 0.00 35 1019.6
20260904161217 68 244 2.0 9.0 0.00 0.00 0.00 35 1019.8
20260904161203 68 243 2.0 9.0 0.00 0.00 0.00 35 1019.8
20260904161103 67 236 2.0 9.0 0.00 0.00 0.00 34 1019.7
20260904161018 67 239 3.0 9.0 0.00 0.00 0.00 34 1019.7
20260904160903 67 243 4.0 9.0 0.00 0.00 0.00 35 1019.7
20260904160703 68 257 2.0 6.0 0.00 0.00 0.00 36 1019.9
20260904160603 67 273 2.0 6.0 0.00 0.00 0.00 37 1019.7
20260904160503 67 250 2.0 6.0 0.00 0.00 0.00 38 1019.8
20260904160403 67 234 4.0 6.0 0.00 0.00 0.00 37 1020.0
20260904160303 68 237 1.0 4.0 0.00 0.00 0.00 37 1019.7
20260904160203 68 234 2.0 4.0 0.00 0.00 0.00 37 1019.8
20260904160103 67 221 2.0 4.0 0.00 0.00 0.00 37 1019.6
20260904160004 68 219 2.0 8.0 0.00 0.00 0.00 35 1019.7
20260904155718 68 223 2.0 8.0 0.00 0.00 0.00 37 1020.0
20260904155703 68 229 2.0 8.0 0.00 0.00 0.00 37 1020.0
20260904155603 67 235 2.0 8.0 0.00 0.00 0.00 37 1020.0
20260904155403 67 228 2.0 11.0 0.00 0.00 0.00 37 1020.0
20260904155306 67 229 4.0 11.0 0.00 0.00 0.00 36 1019.9
20260904155203 68 208 4.0 11.0 0.00 0.00 0.00 36 1020.1
20260904155103 68 222 5.0 11.0 0.00 0.00 0.00 35 1020.2
20260904155003 70 172 2.0 6.0 0.00 0.00 0.00 36 1019.9
20260904154903 71 132 1.0 6.0 0.00 0.00 0.00 36 1020.2
20260904154803 71 96 0.0 6.0 0.00 0.00 0.00 37 1020.0
20260904154703 69 91 2.0 6.0 0.00 0.00 0.00 38 1020.4
20260904154603 68 125 2.0 6.0 0.00 0.00 0.00 37 1020.2
20260904154503 69 156 2.0 4.0 0.00 0.00 0.00 37 1020.0
20260904154403 69 191 1.0 6.0 0.00 0.00 0.00 37 1020.2
20260904154303 68 209 1.0 6.0 0.00 0.00 0.00 37 1020.2
20260904154217 68 212 1.0 6.0 0.00 0.00 0.00 37 1020.5
20260904154203 68 217 1.0 6.0 0.00 0.00 0.00 37 1020.5
20260904154103 67 220 1.0 6.0 0.00 0.00 0.00 37 1020.5
20260904153903 67 241 2.0 6.0 0.00 0.00 0.00 38 1020.3
20260904153803 66 248 3.0 6.0 0.00 0.00 0.00 38 1020.4
20260904153703 66 248 4.0 6.0 0.00 0.00 0.00 38 1020.5
20260904153603 67 261 2.0 4.0 0.00 0.00 0.00 38 1020.5
20260904153503 67 263 1.0 4.0 0.00 0.00 0.00 38 1020.4
20260904153403 68 253 1.0 4.0 0.00 0.00 0.00 38 1020.5
20260904153303 67 237 1.0 4.0 0.00 0.00 0.00 39 1020.3
20260904153203 67 231 2.0 7.0 0.00 0.00 0.00 39 1020.5
20260904153103 67 228 2.0 7.0 0.00 0.00 0.00 39 1020.6
20260904153003 67 222 1.0 7.0 0.00 0.00 0.00 38 1020.5
20260904152904 66 219 2.0 7.0 0.00 0.00 0.00 39 1020.3
20260904152803 66 228 2.0 7.0 0.00 0.00 0.00 39 1020.4
20260904152703 65 232 5.0 7.0 0.00 0.00 0.00 39 1020.4
20260904152603 66 234 3.0 6.0 0.00 0.00 0.00 38 1020.6
20260904152517 66 236 1.0 6.0 0.00 0.00 0.00 38 1020.4
20260904152503 66 235 1.0 6.0 0.00 0.00 0.00 38 1020.4
20260904152403 65 238 2.0 6.0 0.00 0.00 0.00 39 1020.5
20260904152203 67 244 4.0 7.0 0.00 0.00 0.00 38 1020.6
20260904152103 67 243 2.0 7.0 0.00 0.00 0.00 40 1020.4
20260904152003 66 246 2.0 7.0 0.00 0.00 0.00 41 1020.6
20260904151903 65 246 4.0 7.0 0.00 0.00 0.00 41 1020.5
20260904151803 66 240 2.0 4.0 0.00 0.00 0.00 41 1020.7
20260904151703 66 266 2.0 4.0 0.00 0.00 0.00 41 1020.7
20260904151603 66 276 2.0 6.0 0.00 0.00 0.00 41 1020.6
20260904151517 66 267 1.0 6.0 0.00 0.00 0.00 41 1020.8
20260904151503 65 261 2.0 6.0 0.00 0.00 0.00 41 1020.6
20260904151403 65 255 1.0 6.0 0.00 0.00 0.00 41 1020.7
20260904151203 64 253 3.0 6.0 0.00 0.00 0.00 42 1020.8
20260904151103 64 244 4.0 6.0 0.00 0.00 0.00 43 1020.7
20260904151003 65 255 4.0 6.0 0.00 0.00 0.00 42 1020.7
20260904150918 65 279 2.0 4.0 0.00 0.00 0.00 42 1020.9
20260904150903 65 287 2.0 4.0 0.00 0.00 0.00 42 1020.9
20260904150803 65 297 2.0 4.0 0.00 0.00 0.00 41 1020.8
20260904150718 66 311 2.0 6.0 0.00 0.00 0.00 41 1020.8
20260904150603 65 301 2.0 6.0 0.00 0.00 0.00 40 1020.7
20260904150403 65 275 2.0 6.0 0.00 0.00 0.00 41 1020.8
20260904150303 64 263 4.0 6.0 0.00 0.00 0.00 41 1020.9
20260904150218 65 256 2.0 6.0 0.00 0.00 0.00 41 1020.7
20260904150203 65 257 2.0 6.0 0.00 0.00 0.00 41 1020.7
20260904145903 65 289 4.0 4.0 0.00 0.00 0.00 43 1020.7
20260904145803 65 303 2.0 4.0 0.00 0.00 0.00 43 1020.8
20260904145717 65 299 3.0 4.0 0.00 0.00 0.00 43 1020.9
20260904145703 65 296 3.0 4.0 0.00 0.00 0.00 43 1020.9
20260904145603 65 273 2.0 4.0 0.00 0.00 0.00 43 1020.8
20260904145403 65 221 0.0 7.0 0.00 0.00 0.00 44 1021.0
20260904145305 65 220 2.0 7.0 0.00 0.00 0.00 45 1020.9
20260904145203 64 218 2.0 7.0 0.00 0.00 0.00 45 1021.2
20260904145103 64 226 4.0 7.0 0.00 0.00 0.00 46 1020.9
20260904144903 64 261 4.0 7.0 0.00 0.00 0.00 47 1021.0
20260904144803 64 281 3.0 7.0 0.00 0.00 0.00 48 1021.1
20260904144717 65 295 2.0 6.0 0.00 0.00 0.00 49 1021.0
20260904144703 65 300 2.0 6.0 0.00 0.00 0.00 48 1021.1
20260904144603 65 318 3.0 6.0 0.00 0.00 0.00 48 1020.9
20260904144403 65 322 0.0 4.0 0.00 0.00 0.00 48 1021.2
20260904144303 64 328 2.0 6.0 0.00 0.00 0.00 50 1021.0
20260904144203 63 331 3.0 6.0 0.00 0.00 0.00 50 1021.2
20260904144103 63 331 3.0 6.0 0.00 0.00 0.00 50 1021.2
20260904144003 64 335 2.0 6.0 0.00 0.00 0.00 49 1021.1
20260904143903 63 340 3.0 6.0 0.00 0.00 0.00 50 1021.1
20260904143817 63 341 3.0 6.0 0.00 0.00 0.00 50 1021.3
20260904143803 63 342 3.0 6.0 0.00 0.00 0.00 50 1021.3
20260904143703 63 345 2.0 4.0 0.00 0.00 0.00 51 1021.2
20260904143304 63 246 3.0 6.0 0.00 0.00 0.00 50 1021.0
20260904143203 64 266 1.0 6.0 0.00 0.00 0.00 49 1021.2
20260904143103 64 300 2.0 6.0 0.00 0.00 0.00 50 1021.1
20260904143003 64 315 2.0 7.0 0.00 0.00 0.00 50 1021.3
20260904142903 64 319 1.0 7.0 0.00 0.00 0.00 51 1021.3
20260904142803 62 318 3.0 7.0 0.00 0.00 0.00 50 1021.1
20260904142703 62 300 4.0 7.0 0.00 0.00 0.00 51 1021.1
20260904142603 62 286 4.0 7.0 0.00 0.00 0.00 51 1021.4
20260904142503 62 264 5.0 7.0 0.00 0.00 0.00 51 1021.1
20260904142417 63 249 2.0 4.0 0.00 0.00 0.00 52 1021.4
20260904142403 62 246 2.0 4.0 0.00 0.00 0.00 53 1021.3
20260904142306 62 245 2.0 4.0 0.00 0.00 0.00 53 1021.1
20260904142103 62 270 4.0 4.0 0.00 0.00 0.00 52 1021.4
20260904142004 63 286 1.0 4.0 0.00 0.00 0.00 50 1021.4
20260904141903 63 304 2.0 4.0 0.00 0.00 0.00 50 1021.4
20260904141803 64 309 2.0 4.0 0.00 0.00 0.00 51 1021.2
20260904141703 64 304 0.0 4.0 0.00 0.00 0.00 51 1021.2
20260904141603 63 292 1.0 4.0 0.00 0.00 0.00 51 1021.4
20260904141503 63 285 0.0 4.0 0.00 0.00 0.00 52 1021.3
20260904141403 62 279 1.0 4.0 0.00 0.00 0.00 52 1021.3
20260904141303 62 269 2.0 4.0 0.00 0.00 0.00 52 1021.2
20260904141203 62 259 2.0 4.0 0.00 0.00 0.00 51 1021.4
20260904141103 62 267 3.0 4.0 0.00 0.00 0.00 51 1021.4
20260904141004 63 257 1.0 2.0 0.00 0.00 0.00 52 1021.2
20260904140903 62 268 2.0 2.0 0.00 0.00 0.00 52 1021.3
20260904140803 63 266 1.0 2.0 0.00 0.00 0.00 51 1021.5
20260904140703 64 245 0.0 2.0 0.00 0.00 0.00 51 1021.4
20260904140603 63 233 1.0 2.0 0.00 0.00 0.00 53 1021.3
20260904140503 63 236 1.0 2.0 0.00 0.00 0.00 54 1021.5
20260904140403 62 246 2.0 2.0 0.00 0.00 0.00 53 1021.4
20260904140303 62 253 2.0 2.0 0.00 0.00 0.00 53 1021.2
20260904140203 62 258 1.0 4.0 0.00 0.00 0.00 53 1021.6
20260904140103 63 270 0.0 4.0 0.00 0.00 0.00 53 1021.3
20260904140003 61 271 2.0 4.0 0.00 0.00 0.00 54 1021.2
20260904135904 61 269 2.0 4.0 0.00 0.00 0.00 54 1021.4
20260904135803 62 272 2.0 4.0 0.00 0.00 0.00 53 1021.4
20260904135703 62 286 2.0 4.0 0.00 0.00 0.00 52 1021.4
20260904135603 62 282 1.0 4.0 0.00 0.00 0.00 54 1021.1
20260904135503 62 277 1.0 4.0 0.00 0.00 0.00 54 1021.3
20260904135403 62 276 1.0 4.0 0.00 0.00 0.00 54 1021.3
20260904135306 61 277 0.0 4.0 0.00 0.00 0.00 54 1021.3
20260904135203 61 277 2.0 4.0 0.00 0.00 0.00 54 1021.3
20260904135003 62 281 0.0 4.0 0.00 0.00 0.00 53 1021.5
20260904134903 62 277 0.0 4.0 0.00 0.00 0.00 54 1021.4
20260904134803 61 264 1.0 4.0 0.00 0.00 0.00 55 1021.5
20260904134703 61 258 0.0 4.0 0.00 0.00 0.00 55 1021.3
20260904134603 60 253 1.0 4.0 0.00 0.00 0.00 56 1021.4
20260904134504 60 247 2.0 4.0 0.00 0.00 0.00 56 1021.5
20260904134403 60 231 2.0 4.0 0.00 0.00 0.00 56 1021.6
20260904134304 60 231 2.0 2.0 0.00 0.00 0.00 55 1021.4
20260904134203 61 228 2.0 4.0 0.00 0.00 0.00 55 1021.6
20260904134103 62 232 0.0 4.0 0.00 0.00 0.00 54 1021.6
20260904134003 61 244 0.0 4.0 0.00 0.00 0.00 57 1021.7
20260904133918 60 250 1.0 4.0 0.00 0.00 0.00 57 1021.5
20260904133903 60 253 1.0 4.0 0.00 0.00 0.00 57 1021.5
20260904133818 59 258 0.0 4.0 0.00 0.00 0.00 57 1021.3
20260904133803 59 259 0.0 4.0 0.00 0.00 0.00 57 1021.3
20260904133504 59 283 2.0 4.0 0.00 0.00 0.00 57 1021.4
20260904133403 59 284 2.0 4.0 0.00 0.00 0.00 57 1021.5
20260904133307 59 282 2.0 4.0 0.00 0.00 0.00 56 1021.6
20260904133203 59 261 1.0 4.0 0.00 0.00 0.00 57 1021.3
20260904133103 59 235 2.0 4.0 0.00 0.00 0.00 57 1021.3
20260904133003 59 230 1.0 4.0 0.00 0.00 0.00 57 1021.4
20260904132903 59 228 1.0 4.0 0.00 0.00 0.00 57 1021.4
20260904132603 59 255 1.0 4.0 0.00 0.00 0.00 57 1021.7
20260904132518 59 255 0.0 2.0 0.00 0.00 0.00 57 1021.4
20260904132503 59 254 0.0 2.0 0.00 0.00 0.00 57 1021.4
20260904132403 58 252 1.0 2.0 0.00 0.00 0.00 57 1021.4
20260904132203 58 249 2.0 2.0 0.00 0.00 0.00 57 1021.3
20260904132107 59 245 1.0 2.0 0.00 0.00 0.00 56 1021.6
20260904132003 59 245 0.0 2.0 0.00 0.00 0.00 58 1021.5
20260904131803 58 237 0.0 4.0 0.00 0.00 0.00 58 1021.4
20260904131703 58 238 0.0 4.0 0.00 0.00 0.00 58 1021.3
20260904131603 58 234 0.0 4.0 0.00 0.00 0.00 59 1021.1
20260904131403 57 225 2.0 4.0 0.00 0.00 0.00 59 1021.1
20260904131303 57 219 2.0 4.0 0.00 0.00 0.00 58 1021.3
20260904131203 58 225 1.0 4.0 0.00 0.00 0.00 57 1021.2
20260904131103 58 248 1.0 4.0 0.00 0.00 0.00 57 1021.4
20260904131003 58 254 1.0 4.0 0.00 0.00 0.00 57 1021.2
20260904130904 58 251 0.0 4.0 0.00 0.00 0.00 58 1021.2
20260904130803 57 234 1.0 4.0 0.00 0.00 0.00 58 1021.3
20260904130704 57 208 2.0 4.0 0.00 0.00 0.00 58 1021.3
20260904130603 57 192 2.0 2.0 0.00 0.00 0.00 58 1021.1
20260904130503 57 187 1.0 2.0 0.00 0.00 0.00 58 1021.2
20260904130403 57 194 1.0 4.0 0.00 0.00 0.00 59 1021.3
20260904130303 57 204 1.0 4.0 0.00 0.00 0.00 59 1021.3
20260904130203 56 220 2.0 4.0 0.00 0.00 0.00 59 1021.5
20260904130103 56 225 2.0 4.0 0.00 0.00 0.00 59 1021.3
20260904130004 56 248 2.0 4.0 0.00 0.00 0.00 59 1021.3
20260904125903 56 246 2.0 4.0 0.00 0.00 0.00 59 1021.3
20260904125803 56 250 0.0 4.0 0.00 0.00 0.00 60 1021.2
20260904125703 56 249 1.0 4.0 0.00 0.00 0.00 60 1021.4
20260904125603 56 252 2.0 4.0 0.00 0.00 0.00 61 1021.4
20260904125403 55 246 3.0 4.0 0.00 0.00 0.00 60 1021.2
20260904125305 55 254 1.0 4.0 0.00 0.00 0.00 61 1021.3
20260904125218 55 252 2.0 4.0 0.00 0.00 0.00 60 1021.2
20260904125203 55 249 1.0 4.0 0.00 0.00 0.00 61 1021.3
20260904125103 55 242 2.0 4.0 0.00 0.00 0.00 61 1021.4
20260904124904 55 231 2.0 4.0 0.00 0.00 0.00 61 1021.3
20260904124818 55 215 2.0 4.0 0.00 0.00 0.00 61 1021.3
20260904124803 54 215 2.0 4.0 0.00 0.00 0.00 61 1021.3
20260904124703 55 221 1.0 4.0 0.00 0.00 0.00 61 1021.0
20260904124503 55 224 2.0 2.0 0.00 0.00 0.00 60 1021.3
20260904124403 55 244 0.0 4.0 0.00 0.00 0.00 62 1021.3
20260904124303 54 250 1.0 4.0 0.00 0.00 0.00 62 1021.3
20260904124217 54 247 2.0 4.0 0.00 0.00 0.00 62 1021.4
20260904124203 54 246 2.0 4.0 0.00 0.00 0.00 62 1021.4
20260904124103 54 245 2.0 4.0 0.00 0.00 0.00 62 1021.3
20260904123903 54 258 2.0 4.0 0.00 0.00 0.00 62 1021.5
20260904123803 54 262 0.0 4.0 0.00 0.00 0.00 63 1021.2
20260904123703 54 259 0.0 4.0 0.00 0.00 0.00 64 1021.2
20260904123503 53 260 2.0 4.0 0.00 0.00 0.00 64 1021.2
20260904123403 53 256 2.0 4.0 0.00 0.00 0.00 64 1021.2
20260904123303 52 252 2.0 4.0 0.00 0.00 0.00 65 1021.3
20260904123203 52 252 2.0 4.0 0.00 0.00 0.00 65 1021.2
20260904123118 52 249 2.0 4.0 0.00 0.00 0.00 65 1021.1
20260904123103 52 247 2.0 4.0 0.00 0.00 0.00 65 1021.1
20260904123003 52 237 2.0 4.0 0.00 0.00 0.00 65 1021.1
20260904122818 52 227 1.0 4.0 0.00 0.00 0.00 65 1021.2
20260904122704 52 216 2.0 4.0 0.00 0.00 0.00 65 1021.1
20260904122503 52 225 1.0 2.0 0.00 0.00 0.00 66 1020.9
20260904122403 51 227 0.0 4.0 0.00 0.00 0.00 67 1021.0
20260904122306 51 235 2.0 4.0 0.00 0.00 0.00 67 1021.1
20260904122203 50 239 2.0 4.0 0.00 0.00 0.00 67 1021.0
20260904122107 50 237 2.0 4.0 0.00 0.00 0.00 67 1021.0
20260904122003 51 243 2.0 4.0 0.00 0.00 0.00 66 1020.9
20260904121903 51 252 2.0 2.0 0.00 0.00 0.00 67 1020.9
20260904121803 51 277 2.0 2.0 0.00 0.00 0.00 67 1021.0
20260904121603 51 297 1.0 2.0 0.00 0.00 0.00 68 1021.1
20260904121503 50 292 0.0 2.0 0.00 0.00 0.00 68 1020.9
20260904121403 50 292 0.0 2.0 0.00 0.00 0.00 68 1021.3
20260904121317 50 292 1.0 2.0 0.00 0.00 0.00 68 1021.2
20260904121203 50 287 2.0 4.0 0.00 0.00 0.00 68 1021.2
20260904121018 50 294 0.0 4.0 0.00 0.00 0.00 69 1021.0
20260904121003 50 296 0.0 4.0 0.00 0.00 0.00 69 1021.0
20260904120903 50 307 1.0 4.0 0.00 0.00 0.00 69 1021.1
20260904120703 49 328 2.0 4.0 0.00 0.00 0.00 69 1021.2
20260904120603 49 326 2.0 4.0 0.00 0.00 0.00 70 1021.1
20260904120504 49 326 0.0 4.0 0.00 0.00 0.00 70 1021.3
20260904120403 49 322 2.0 4.0 0.00 0.00 0.00 70 1021.2
20260904120303 49 310 2.0 4.0 0.00 0.00 0.00 70 1021.2
20260904120203 49 299 2.0 4.0 0.00 0.00 0.00 70 1021.1
20260904120103 49 287 2.0 4.0 0.00 0.00 0.00 70 1021.0
20260904120004 49 277 0.0 4.0 0.00 0.00 0.00 71 1021.0
20260904115903 49 280 1.0 4.0 0.00 0.00 0.00 71 1021.3
20260904115803 48 284 2.0 4.0 0.00 0.00 0.00 71 1021.2
20260904115703 48 287 2.0 4.0 0.00 0.00 0.00 71 1021.1
20260904115603 48 292 2.0 4.0 0.00 0.00 0.00 71 1020.9
20260904115503 48 299 2.0 4.0 0.00 0.00 0.00 71 1020.9
20260904115418 48 300 2.0 4.0 0.00 0.00 0.00 71 1021.1
20260904115404 48 298 2.0 4.0 0.00 0.00 0.00 71 1021.1
20260904115306 48 287 2.0 2.0 0.00 0.00 0.00 71 1021.0
20260904115103 48 292 0.0 2.0 0.00 0.00 0.00 71 1021.0
20260904115004 48 292 1.0 2.0 0.00 0.00 0.00 71 1021.0
20260904114903 48 292 0.0 2.0 0.00 0.00 0.00 71 1021.3
20260904114803 48 0 0.0 0.0 0.00 0.00 0.00 72 1020.9
20260904114503 48 281 0.0 2.0 0.00 0.00 0.00 71 1021.1
20260904114403 48 288 0.0 2.0 0.00 0.00 0.00 71 1020.9
20260904114303 47 296 2.0 2.0 0.00 0.00 0.00 72 1020.9
20260904114203 47 286 2.0 4.0 0.00 0.00 0.00 72 1020.8
20260904114103 47 284 2.0 4.0 0.00 0.00 0.00 72 1021.0
20260904114003 47 279 0.0 4.0 0.00 0.00 0.00 72 1021.0
20260904113903 47 274 2.0 4.0 0.00 0.00 0.00 72 1021.0
20260904113803 47 267 2.0 4.0 0.00 0.00 0.00 72 1021.0
20260904113703 47 268 1.0 4.0 0.00 0.00 0.00 72 1020.8
20260904113603 47 279 2.0 4.0 0.00 0.00 0.00 72 1021.0
20260904113503 47 288 2.0 4.0 0.00 0.00 0.00 72 1021.1
20260904113403 47 303 1.0 4.0 0.00 0.00 0.00 71 1021.0
20260904113318 47 304 0.0 4.0 0.00 0.00 0.00 71 1021.2
20260904113303 47 303 0.0 4.0 0.00 0.00 0.00 71 1021.2
20260904113203 47 306 2.0 4.0 0.00 0.00 0.00 71 1021.1
20260904113018 48 288 2.0 4.0 0.00 0.00 0.00 71 1020.8
20260904113003 48 281 2.0 4.0 0.00 0.00 0.00 71 1020.8
20260904112903 47 259 1.0 4.0 0.00 0.00 0.00 71 1020.9
20260904112703 47 247 2.0 4.0 0.00 0.00 0.00 71 1021.3
20260904112318 47 275 1.0 4.0 0.00 0.00 0.00 71 1021.0
20260904112306 47 275 2.0 4.0 0.00 0.00 0.00 71 1020.9
20260904112203 47 276 0.0 4.0 0.00 0.00 0.00 71 1020.9
20260904112003 47 274 0.0 2.0 0.00 0.00 0.00 70 1020.8
20260904111916 47 276 0.0 2.0 0.00 0.00 0.00 70 1020.8
20260904111903 48 277 1.0 2.0 0.00 0.00 0.00 70 1020.9
20260904111803 48 282 1.0 2.0 0.00 0.00 0.00 70 1021.0
20260904111718 48 288 1.0 2.0 0.00 0.00 0.00 70 1020.9
20260904111618 48 282 0.0 2.0 0.00 0.00 0.00 70 1021.1
20260904111603 48 281 0.0 2.0 0.00 0.00 0.00 70 1021.0
20260904111303 48 270 0.0 2.0 0.00 0.00 0.00 69 1021.2
20260904111203 48 270 1.0 2.0 0.00 0.00 0.00 69 1020.8
20260904111117 48 270 1.0 2.0 0.00 0.00 0.00 69 1020.8
20260904111003 48 270 0.0 2.0 0.00 0.00 0.00 68 1021.0
20260904110923 49 270 1.0 2.0 0.00 0.00 0.00 68 1020.8
20260904110817 49 239 1.0 2.0 0.00 0.00 0.00 68 1020.8
20260904110803 49 225 0.0 2.0 0.00 0.00 0.00 68 1021.1
20260904110718 49 225 0.0 2.0 0.00 0.00 0.00 68 1021.1
20260904110618 49 225 0.0 2.0 0.00 0.00 0.00 67 1020.8
20260904110418 48 225 0.0 2.0 0.00 0.00 0.00 67 1020.6
20260904110303 48 225 0.0 2.0 0.00 0.00 0.00 67 1020.5
20260904110117 48 238 0.0 2.0 0.00 0.00 0.00 67 1020.5
20260904110004 48 235 0.0 2.0 0.00 0.00 0.00 67 1020.6
20260904105803 48 236 1.0 2.0 0.00 0.00 0.00 68 1020.5
20260904105703 48 233 0.0 2.0 0.00 0.00 0.00 68 1020.5
20260904105603 48 225 1.0 2.0 0.00 0.00 0.00 68 1020.5
20260904105503 48 225 0.0 2.0 0.00 0.00 0.00 68 1020.7
20260904105403 48 225 0.0 2.0 0.00 0.00 0.00 68 1020.6
20260904105305 48 225 0.0 2.0 0.00 0.00 0.00 68 1020.5
20260904105203 48 0 0.0 0.0 0.00 0.00 0.00 68 1020.7
20260904105003 48 0 0.0 0.0 0.00 0.00 0.00 68 1020.6
20260904104903 47 0 0.0 0.0 0.00 0.00 0.00 68 1020.4
20260904104403 47 0 0.0 0.0 0.00 0.00 0.00 69 1020.4
20260904104303 47 0 0.0 0.0 0.00 0.00 0.00 69 1020.5
20260904104203 47 0 0.0 0.0 0.00 0.00 0.00 69 1020.5
20260904104103 47 0 0.0 0.0 0.00 0.00 0.00 69 1020.4
20260904104005 47 0 0.0 0.0 0.00 0.00 0.00 69 1020.1
20260904103917 47 0 0.0 0.0 0.00 0.00 0.00 69 1020.4
20260904103903 47 0 0.0 0.0 0.00 0.00 0.00 70 1020.3
20260904103603 47 0 0.0 0.0 0.00 0.00 0.00 70 1020.2
20260904103517 47 0 0.0 0.0 0.00 0.00 0.00 70 1020.3
20260904103504 47 0 0.0 0.0 0.00 0.00 0.00 70 1020.2
20260904103403 47 0 0.0 0.0 0.00 0.00 0.00 70 1020.3
20260904103117 47 0 0.0 0.0 0.00 0.00 0.00 70 1020.2
20260904103103 47 0 0.0 0.0 0.00 0.00 0.00 71 1020.1
20260904103003 47 0 0.0 0.0 0.00 0.00 0.00 71 1020.1
20260904102803 47 0 0.0 0.0 0.00 0.00 0.00 71 1020.3
20260904102703 47 0 0.0 0.0 0.00 0.00 0.00 72 1020.2
20260904102603 46 0 0.0 0.0 0.00 0.00 0.00 72 1020.0
20260904102503 46 0 0.0 0.0 0.00 0.00 0.00 72 1020.0
20260904102403 46 0 0.0 0.0 0.00 0.00 0.00 72 1020.2
20260904102306 46 0 0.0 0.0 0.00 0.00 0.00 72 1020.2
20260904102203 47 0 0.0 0.0 0.00 0.00 0.00 72 1020.2
20260904102103 47 0 0.0 0.0 0.00 0.00 0.00 72 1019.9
20260904101803 47 0 0.0 0.0 0.00 0.00 0.00 72 1020.0
20260904101703 47 0 0.0 0.0 0.00 0.00 0.00 72 1020.2
20260904101603 47 0 0.0 0.0 0.00 0.00 0.00 72 1020.1
20260904101303 47 0 0.0 0.0 0.00 0.00 0.00 72 1020.0
20260904101203 47 0 0.0 0.0 0.00 0.00 0.00 72 1020.0
20260904101103 47 0 0.0 0.0 0.00 0.00 0.00 72 1020.1
20260904101003 47 0 0.0 0.0 0.00 0.00 0.00 72 1020.0
20260904100903 47 0 0.0 0.0 0.00 0.00 0.00 72 1019.9
20260904100803 47 0 0.0 0.0 0.00 0.00 0.00 72 1019.8
20260904100703 47 0 0.0 0.0 0.00 0.00 0.00 71 1020.3
20260904100603 47 0 0.0 0.0 0.00 0.00 0.00 71 1020.1
20260904100503 47 0 0.0 0.0 0.00 0.00 0.00 71 1020.1
20260904100303 47 0 0.0 0.0 0.00 0.00 0.00 72 1020.0
20260904100203 47 0 0.0 0.0 0.00 0.00 0.00 72 1019.9
20260904100105 47 0 0.0 0.0 0.00 0.00 0.00 72 1020.2
20260904100004 47 0 0.0 0.0 0.00 0.00 0.00 72 1019.9
20260904095903 47 0 0.0 0.0 0.00 0.00 0.00 72 1020.2
20260904095803 46 0 0.0 0.0 0.00 0.00 0.00 72 1020.0
20260904095703 46 0 0.0 0.0 0.00 0.00 0.00 72 1019.9
20260904095603 46 0 0.0 0.0 0.00 0.00 0.00 72 1019.9
20260904095503 46 0 0.0 0.0 0.00 0.00 0.00 72 1020.0
20260904095403 46 0 0.0 0.0 0.00 0.00 0.00 72 1019.9
20260904095306 47 0 0.0 0.0 0.00 0.00 0.00 72 1019.9
20260904095203 46 0 0.0 0.0 0.00 0.00 0.00 72 1019.8
20260904095103 46 0 0.0 0.0 0.00 0.00 0.00 72 1020.1
20260904095003 46 0 0.0 0.0 0.00 0.00 0.00 72 1019.9
20260904094903 46 0 0.0 0.0 0.00 0.00 0.00 72 1019.9
20260904094803 46 0 0.0 0.0 0.00 0.00 0.00 72 1019.8
20260904094703 46 0 0.0 0.0 0.00 0.00 0.00 72 1020.1
20260904094603 46 0 0.0 0.0 0.00 0.00 0.00 72 1020.0
20260904094503 46 0 0.0 0.0 0.00 0.00 0.00 72 1019.8
20260904094303 46 0 0.0 0.0 0.00 0.00 0.00 72 1019.9
20260904094203 46 0 0.0 0.0 0.00 0.00 0.00 72 1020.1
20260904094103 46 0 0.0 0.0 0.00 0.00 0.00 72 1020.0
20260904093903 46 0 0.0 0.0 0.00 0.00 0.00 71 1019.9
20260904093803 46 0 0.0 0.0 0.00 0.00 0.00 71 1019.8
20260904093703 46 0 0.0 0.0 0.00 0.00 0.00 71 1020.1
20260904093604 46 0 0.0 0.0 0.00 0.00 0.00 71 1019.9
20260904093503 46 0 0.0 0.0 0.00 0.00 0.00 71 1019.7
20260904093403 46 0 0.0 0.0 0.00 0.00 0.00 71 1019.8
20260904093303 46 0 0.0 0.0 0.00 0.00 0.00 71 1019.9
20260904093203 46 0 0.0 0.0 0.00 0.00 0.00 71 1019.7
20260904093117 46 0 0.0 0.0 0.00 0.00 0.00 71 1020.1
20260904093103 46 0 0.0 0.0 0.00 0.00 0.00 71 1019.8
20260904093003 46 0 0.0 0.0 0.00 0.00 0.00 71 1019.8
20260904092918 46 0 0.0 0.0 0.00 0.00 0.00 71 1020.0
20260904092603 47 0 0.0 0.0 0.00 0.00 0.00 71 1019.8
20260904092503 47 0 0.0 0.0 0.00 0.00 0.00 71 1019.6
20260904092403 46 0 0.0 0.0 0.00 0.00 0.00 70 1020.0
20260904092306 47 0 0.0 0.0 0.00 0.00 0.00 71 1019.7
20260904092103 47 0 0.0 0.0 0.00 0.00 0.00 71 1019.8
20260904092003 47 0 0.0 0.0 0.00 0.00 0.00 71 1019.8
20260904091903 46 0 0.0 0.0 0.00 0.00 0.00 71 1019.7
20260904091703 46 0 0.0 0.0 0.00 0.00 0.00 71 1019.7
20260904091603 46 0 0.0 0.0 0.00 0.00 0.00 71 1019.8
20260904091503 46 0 0.0 0.0 0.00 0.00 0.00 71 1019.8
20260904091403 46 0 0.0 0.0 0.00 0.00 0.00 71 1019.7
20260904091303 46 0 0.0 0.0 0.00 0.00 0.00 71 1019.8
20260904091203 46 247 0.0 2.0 0.00 0.00 0.00 71 1019.7
20260904091109 46 247 0.0 2.0 0.00 0.00 0.00 71 1019.6
20260904091003 46 247 0.0 2.0 0.00 0.00 0.00 71 1019.8
20260904090903 47 247 0.0 2.0 0.00 0.00 0.00 71 1019.9
20260904090803 47 247 0.0 2.0 0.00 0.00 0.00 71 1019.5
20260904090703 47 247 0.0 2.0 0.00 0.00 0.00 71 1019.6
20260904090618 47 247 0.0 2.0 0.00 0.00 0.00 71 1019.6
20260904090503 47 247 0.0 2.0 0.00 0.00 0.00 71 1019.5
20260904090303 47 247 0.0 2.0 0.00 0.00 0.00 70 1019.4
20260904090203 47 247 0.0 2.0 0.00 0.00 0.00 70 1019.6
20260904090103 47 0 0.0 0.0 0.00 0.00 0.00 70 1019.5
20260904090004 47 0 0.0 0.0 0.00 0.00 0.00 70 1019.5
20260904085903 47 0 0.0 0.0 0.00 0.00 0.00 70 1019.5
20260904085803 47 0 0.0 0.0 0.00 0.00 0.00 70 1019.8
20260904085703 47 0 0.0 0.0 0.00 0.00 0.00 70 1019.6
20260904085603 47 0 0.0 0.0 0.00 0.00 0.00 70 1019.6
20260904085503 47 0 0.0 0.0 0.00 0.00 0.00 70 1019.7
20260904085403 47 0 0.0 0.0 0.00 0.00 0.00 70 1019.6
20260904085305 47 0 0.0 0.0 0.00 0.00 0.00 70 1019.5
20260904085203 47 0 0.0 0.0 0.00 0.00 0.00 70 1019.5
20260904085103 47 0 0.0 0.0 0.00 0.00 0.00 70 1019.4
20260904085003 47 0 0.0 0.0 0.00 0.00 0.00 70 1019.6
20260904084903 47 0 0.0 0.0 0.00 0.00 0.00 70 1019.4
20260904084803 47 0 0.0 0.0 0.00 0.00 0.00 70 1019.4
20260904084703 47 0 0.0 0.0 0.00 0.00 0.00 70 1019.6
20260904084503 47 0 0.0 0.0 0.00 0.00 0.00 70 1019.5
20260904084403 47 0 0.0 0.0 0.00 0.00 0.00 70 1019.5
20260904084303 47 0 0.0 0.0 0.00 0.00 0.00 70 1019.6
20260904084203 47 0 0.0 0.0 0.00 0.00 0.00 70 1019.5
20260904084103 47 0 0.0 0.0 0.00 0.00 0.00 70 1019.4
20260904083903 47 0 0.0 0.0 0.00 0.00 0.00 69 1019.4
20260904083804 47 0 0.0 0.0 0.00 0.00 0.00 69 1019.4
20260904083703 47 0 0.0 0.0 0.00 0.00 0.00 69 1019.4
20260904083503 47 0 0.0 0.0 0.00 0.00 0.00 69 1019.5
20260904083403 47 0 0.0 0.0 0.00 0.00 0.00 69 1019.5
20260904083303 47 225 0.0 2.0 0.00 0.00 0.00 69 1019.5
20260904083203 47 239 0.0 4.0 0.00 0.00 0.00 69 1019.7
20260904083103 47 235 0.0 4.0 0.00 0.00 0.00 69 1019.5
20260904083003 47 238 0.0 4.0 0.00 0.00 0.00 69 1019.6
20260904082903 47 237 0.0 4.0 0.00 0.00 0.00 69 1019.4
20260904082816 47 237 1.0 4.0 0.00 0.00 0.00 69 1019.4
20260904082803 47 238 1.0 4.0 0.00 0.00 0.00 69 1019.4
20260904082703 47 235 0.0 4.0 0.00 0.00 0.00 69 1019.6
20260904082503 47 219 2.0 4.0 0.00 0.00 0.00 69 1019.6
20260904082417 47 216 1.0 4.0 0.00 0.00 0.00 69 1019.6
20260904082413 47 217 1.0 4.0 0.00 0.00 0.00 69 1019.6
20260904082305 47 222 0.0 4.0 0.00 0.00 0.00 69 1019.4
20260904082103 47 226 1.0 4.0 0.00 0.00 0.00 69 1019.3
20260904082017 47 231 2.0 4.0 0.00 0.00 0.00 69 1019.4
20260904082003 47 233 2.0 4.0 0.00 0.00 0.00 69 1019.4
20260904081903 47 235 1.0 4.0 0.00 0.00 0.00 69 1019.4
20260904081703 47 236 1.0 4.0 0.00 0.00 0.00 69 1019.5
20260904081603 47 237 0.0 4.0 0.00 0.00 0.00 69 1019.5
20260904081518 47 237 1.0 4.0 0.00 0.00 0.00 69 1019.4
20260904081503 47 236 0.0 4.0 0.00 0.00 0.00 69 1019.5
20260904081403 47 237 2.0 4.0 0.00 0.00 0.00 69 1019.5
20260904081203 47 240 1.0 4.0 0.00 0.00 0.00 70 1019.5
20260904081103 47 238 2.0 4.0 0.00 0.00 0.00 70 1019.5
20260904081003 47 238 2.0 4.0 0.00 0.00 0.00 70 1019.3
20260904080903 47 237 2.0 4.0 0.00 0.00 0.00 69 1019.5
20260904080803 47 239 2.0 4.0 0.00 0.00 0.00 70 1019.2
20260904080717 47 239 2.0 4.0 0.00 0.00 0.00 70 1019.3
20260904080703 47 236 2.0 2.0 0.00 0.00 0.00 70 1019.3
20260904080603 47 247 1.0 2.0 0.00 0.00 0.00 70 1019.5
20260904080403 47 225 0.0 4.0 0.00 0.00 0.00 70 1019.4
20260904080303 47 228 0.0 4.0 0.00 0.00 0.00 70 1019.3
20260904080203 47 234 0.0 4.0 0.00 0.00 0.00 70 1019.2
20260904080003 47 238 1.0 4.0 0.00 0.00 0.00 71 1019.3
20260904075903 47 236 1.0 2.0 0.00 0.00 0.00 71 1019.2
20260904075703 47 229 1.0 2.0 0.00 0.00 0.00 71 1019.0
20260904075603 47 225 0.0 2.0 0.00 0.00 0.00 71 1019.2
20260904075518 47 225 0.0 2.0 0.00 0.00 0.00 71 1019.3
20260904075503 47 225 1.0 2.0 0.00 0.00 0.00 72 1019.2
20260904075403 47 225 0.0 2.0 0.00 0.00 0.00 72 1019.4
20260904075203 47 0 0.0 0.0 0.00 0.00 0.00 71 1019.1
20260904075103 47 225 0.0 2.0 0.00 0.00 0.00 71 1019.2
20260904074903 47 225 0.0 2.0 0.00 0.00 0.00 71 1019.2
20260904074803 47 233 0.0 2.0 0.00 0.00 0.00 72 1019.3
20260904074703 47 227 0.0 2.0 0.00 0.00 0.00 72 1019.1
20260904074603 47 228 1.0 2.0 0.00 0.00 0.00 73 1019.3
20260904074503 47 229 0.0 2.0 0.00 0.00 0.00 73 1019.0
20260904074403 47 229 0.0 2.0 0.00 0.00 0.00 73 1019.3
20260904074303 47 202 0.0 2.0 0.00 0.00 0.00 74 1019.3
20260904074203 47 0 0.0 0.0 0.00 0.00 0.00 74 1019.2
20260904074103 47 0 0.0 0.0 0.00 0.00 0.00 74 1019.1
20260904073903 47 0 0.0 0.0 0.00 0.00 0.00 75 1019.1
20260904073803 47 0 0.0 0.0 0.00 0.00 0.00 76 1019.4
20260904073703 47 0 0.0 0.0 0.00 0.00 0.00 76 1019.1
20260904073617 47 0 0.0 0.0 0.00 0.00 0.00 76 1019.2
20260904073503 46 0 0.0 0.0 0.00 0.00 0.00 77 1019.1
20260904073417 46 0 0.0 0.0 0.00 0.00 0.00 78 1019.3
20260904073303 46 0 0.0 0.0 0.00 0.00 0.00 78 1019.1
20260904073003 46 0 0.0 0.0 0.00 0.00 0.00 77 1019.2
20260904072903 46 0 0.0 0.0 0.00 0.00 0.00 77 1019.2
20260904072803 46 0 0.0 0.0 0.00 0.00 0.00 77 1019.3
20260904072703 46 0 0.0 0.0 0.00 0.00 0.00 77 1019.2
20260904072503 46 0 0.0 0.0 0.00 0.00 0.00 77 1019.4
20260904072403 46 0 0.0 0.0 0.00 0.00 0.00 77 1019.3
20260904072306 46 0 0.0 0.0 0.00 0.00 0.00 77 1019.4
20260904072203 46 0 0.0 0.0 0.00 0.00 0.00 77 1019.1
20260904072103 46 0 0.0 0.0 0.00 0.00 0.00 77 1019.2
20260904071803 46 0 0.0 0.0 0.00 0.00 0.00 77 1019.1
20260904071703 46 0 0.0 0.0 0.00 0.00 0.00 77 1019.1
20260904071603 46 0 0.0 0.0 0.00 0.00 0.00 77 1019.3
20260904071503 46 0 0.0 0.0 0.00 0.00 0.00 77 1019.1
20260904071403 46 0 0.0 0.0 0.00 0.00 0.00 77 1019.2
20260904071303 46 0 0.0 0.0 0.00 0.00 0.00 77 1019.1
20260904071203 46 0 0.0 0.0 0.00 0.00 0.00 77 1019.0
20260904071103 47 0 0.0 0.0 0.00 0.00 0.00 77 1019.2
20260904071003 47 0 0.0 0.0 0.00 0.00 0.00 77 1019.1
20260904070903 47 0 0.0 0.0 0.00 0.00 0.00 77 1019.4
20260904070803 47 0 0.0 0.0 0.00 0.00 0.00 76 1019.2
20260904070703 47 0 0.0 0.0 0.00 0.00 0.00 76 1019.1
20260904070603 47 0 0.0 0.0 0.00 0.00 0.00 76 1019.1
20260904070503 47 0 0.0 0.0 0.00 0.00 0.00 76 1019.1
20260904070403 47 0 0.0 0.0 0.00 0.00 0.00 76 1019.3
20260904070303 47 0 0.0 0.0 0.00 0.00 0.00 76 1019.3
20260904070203 47 0 0.0 0.0 0.00 0.00 0.00 76 1019.6
20260904070004 47 0 0.0 0.0 0.00 0.00 0.00 76 1019.3
20260904065903 47 0 0.0 0.0 0.00 0.00 0.00 76 1019.5
20260904065803 47 0 0.0 0.0 0.00 0.00 0.00 76 1019.2
20260904065703 47 0 0.0 0.0 0.00 0.00 0.00 75 1019.2
20260904065603 47 0 0.0 0.0 0.00 0.00 0.00 76 1019.4
20260904065503 48 0 0.0 0.0 0.00 0.00 0.00 76 1019.3
20260904065306 48 0 0.0 0.0 0.00 0.00 0.00 75 1019.3
20260904065203 48 0 0.0 0.0 0.00 0.00 0.00 75 1019.1
20260904065003 48 0 0.0 0.0 0.00 0.00 0.00 75 1019.3
20260904064903 48 0 0.0 0.0 0.00 0.00 0.00 75 1019.3
20260904064804 48 0 0.0 0.0 0.00 0.00 0.00 75 1019.3
20260904064703 48 0 0.0 0.0 0.00 0.00 0.00 75 1019.2
20260904064603 48 0 0.0 0.0 0.00 0.00 0.00 74 1019.2
20260904064503 48 0 0.0 0.0 0.00 0.00 0.00 74 1019.3
20260904064403 48 0 0.0 0.0 0.00 0.00 0.00 74 1019.0
20260904064303 48 0 0.0 0.0 0.00 0.00 0.00 73 1019.3
20260904064203 48 0 0.0 0.0 0.00 0.00 0.00 73 1019.3
20260904064103 49 0 0.0 0.0 0.00 0.00 0.00 73 1019.2
20260904064017 49 0 0.0 0.0 0.00 0.00 0.00 73 1019.1
20260904063903 49 0 0.0 0.0 0.00 0.00 0.00 72 1019.4
20260904063818 49 0 0.0 0.0 0.00 0.00 0.00 72 1019.3
20260904063703 49 0 0.0 0.0 0.00 0.00 0.00 71 1019.4
20260904063617 49 0 0.0 0.0 0.00 0.00 0.00 71 1019.3
20260904063503 49 0 0.0 0.0 0.00 0.00 0.00 70 1019.4
20260904063305 49 0 0.0 0.0 0.00 0.00 0.00 70 1019.3
20260904063203 49 0 0.0 0.0 0.00 0.00 0.00 70 1019.1
20260904063118 49 0 0.0 0.0 0.00 0.00 0.00 71 1019.5
20260904063103 49 0 0.0 0.0 0.00 0.00 0.00 71 1019.4
20260904063003 49 0 0.0 0.0 0.00 0.00 0.00 71 1019.2
20260904062803 49 0 0.0 0.0 0.00 0.00 0.00 72 1019.6
20260904062703 49 0 0.0 0.0 0.00 0.00 0.00 72 1019.5
20260904062617 49 0 0.0 0.0 0.00 0.00 0.00 72 1019.2
20260904062503 49 0 0.0 0.0 0.00 0.00 0.00 72 1019.6
20260904062306 49 0 0.0 0.0 0.00 0.00 0.00 72 1019.3
20260904062203 49 0 0.0 0.0 0.00 0.00 0.00 72 1019.3
20260904062003 49 0 0.0 0.0 0.00 0.00 0.00 72 1019.5
20260904061903 49 0 0.0 0.0 0.00 0.00 0.00 72 1019.6
20260904061803 49 0 0.0 0.0 0.00 0.00 0.00 72 1019.4
20260904061703 49 0 0.0 0.0 0.00 0.00 0.00 72 1019.5
20260904061603 49 0 0.0 0.0 0.00 0.00 0.00 72 1019.5
20260904061503 49 0 0.0 0.0 0.00 0.00 0.00 73 1019.6
20260904061303 49 0 0.0 0.0 0.00 0.00 0.00 72 1019.3
20260904061203 49 0 0.0 0.0 0.00 0.00 0.00 72 1019.4
20260904061118 49 0 0.0 0.0 0.00 0.00 0.00 72 1019.6
20260904061103 49 0 0.0 0.0 0.00 0.00 0.00 72 1019.4
20260904061003 49 0 0.0 0.0 0.00 0.00 0.00 73 1019.4
20260904060803 49 0 0.0 0.0 0.00 0.00 0.00 73 1019.5
20260904060703 49 0 0.0 0.0 0.00 0.00 0.00 73 1019.5
20260904060503 49 0 0.0 0.0 0.00 0.00 0.00 74 1019.6
20260904060403 49 0 0.0 0.0 0.00 0.00 0.00 74 1019.7
20260904060303 48 0 0.0 0.0 0.00 0.00 0.00 74 1019.6
20260904060203 48 0 0.0 0.0 0.00 0.00 0.00 74 1019.6
20260904060103 49 0 0.0 0.0 0.00 0.00 0.00 74 1019.7
20260904060003 48 0 0.0 0.0 0.00 0.00 0.00 74 1019.8
20260904055903 48 0 0.0 0.0 0.00 0.00 0.00 74 1019.7
20260904055803 48 0 0.0 0.0 0.00 0.00 0.00 74 1019.7
20260904055703 48 0 0.0 0.0 0.00 0.00 0.00 74 1019.8
20260904055603 48 0 0.0 0.0 0.00 0.00 0.00 73 1019.6
20260904055504 49 0 0.0 0.0 0.00 0.00 0.00 73 1019.5
20260904055306 49 0 0.0 0.0 0.00 0.00 0.00 73 1019.7
20260904055203 49 0 0.0 0.0 0.00 0.00 0.00 73 1019.7
20260904055003 49 0 0.0 0.0 0.00 0.00 0.00 74 1019.6
20260904054903 48 0 0.0 0.0 0.00 0.00 0.00 74 1019.6
20260904054603 48 0 0.0 0.0 0.00 0.00 0.00 74 1019.6
20260904054503 48 0 0.0 0.0 0.00 0.00 0.00 74 1019.6
20260904054403 48 0 0.0 0.0 0.00 0.00 0.00 74 1019.6
20260904054303 48 0 0.0 0.0 0.00 0.00 0.00 74 1019.6
20260904054203 48 0 0.0 0.0 0.00 0.00 0.00 74 1019.7
20260904054103 48 0 0.0 0.0 0.00 0.00 0.00 74 1019.6
20260904053903 48 0 0.0 0.0 0.00 0.00 0.00 74 1019.5
20260904053803 48 0 0.0 0.0 0.00 0.00 0.00 74 1019.3
20260904053703 48 0 0.0 0.0 0.00 0.00 0.00 74 1019.6
20260904053603 48 0 0.0 0.0 0.00 0.00 0.00 74 1019.5
20260904053503 48 0 0.0 0.0 0.00 0.00 0.00 74 1019.6
20260904053403 48 0 0.0 0.0 0.00 0.00 0.00 74 1019.5
20260904053303 48 0 0.0 0.0 0.00 0.00 0.00 74 1019.4
20260904053203 48 0 0.0 0.0 0.00 0.00 0.00 74 1019.5
20260904053103 48 0 0.0 0.0 0.00 0.00 0.00 74 1019.5
20260904053003 48 0 0.0 0.0 0.00 0.00 0.00 74 1019.7
20260904052903 48 0 0.0 0.0 0.00 0.00 0.00 74 1019.5
20260904052803 48 0 0.0 0.0 0.00 0.00 0.00 74 1019.7
20260904052718 48 0 0.0 0.0 0.00 0.00 0.00 74 1019.7
20260904052703 48 0 0.0 0.0 0.00 0.00 0.00 73 1019.7
20260904052603 48 0 0.0 0.0 0.00 0.00 0.00 73 1019.6
20260904052517 48 0 0.0 0.0 0.00 0.00 0.00 73 1019.7
20260904052403 48 0 0.0 0.0 0.00 0.00 0.00 73 1019.6
20260904052203 48 0 0.0 0.0 0.00 0.00 0.00 72 1019.6
20260904052103 48 0 0.0 0.0 0.00 0.00 0.00 72 1019.5
20260904052003 48 0 0.0 0.0 0.00 0.00 0.00 72 1019.6
20260904051903 48 0 0.0 0.0 0.00 0.00 0.00 72 1019.2
20260904051803 49 0 0.0 0.0 0.00 0.00 0.00 72 1019.3
20260904051703 49 0 0.0 0.0 0.00 0.00 0.00 72 1019.4
20260904051604 49 0 0.0 0.0 0.00 0.00 0.00 72 1019.3
20260904051503 49 0 0.0 0.0 0.00 0.00 0.00 71 1019.5
20260904051403 49 0 0.0 0.0 0.00 0.00 0.00 71 1019.4
20260904051303 49 0 0.0 0.0 0.00 0.00 0.00 71 1019.5
20260904051203 49 0 0.0 0.0 0.00 0.00 0.00 72 1019.6
20260904051103 49 0 0.0 0.0 0.00 0.00 0.00 72 1019.6
20260904051003 49 0 0.0 0.0 0.00 0.00 0.00 72 1019.6
20260904050903 49 0 0.0 0.0 0.00 0.00 0.00 72 1019.6
20260904050803 49 0 0.0 0.0 0.00 0.00 0.00 72 1019.8
20260904050703 49 0 0.0 0.0 0.00 0.00 0.00 72 1019.6
20260904050604 49 0 0.0 0.0 0.00 0.00 0.00 72 1019.6
20260904050503 49 0 0.0 0.0 0.00 0.00 0.00 72 1019.8
20260904050404 49 0 0.0 0.0 0.00 0.00 0.00 72 1019.6
20260904050303 49 0 0.0 0.0 0.00 0.00 0.00 72 1019.6
20260904050203 49 0 0.0 0.0 0.00 0.00 0.00 72 1019.8
20260904050004 49 0 0.0 0.0 0.00 0.00 0.00 71 1019.6
20260904045803 49 0 0.0 0.0 0.00 0.00 0.00 71 1019.7
20260904045703 49 0 0.0 0.0 0.00 0.00 0.00 71 1019.8
20260904045503 49 0 0.0 0.0 0.00 0.00 0.00 71 1019.7
20260904045403 49 0 0.0 0.0 0.00 0.00 0.00 71 1019.7
20260904045306 49 0 0.0 0.0 0.00 0.00 0.00 71 1019.6
20260904045203 49 0 0.0 0.0 0.00 0.00 0.00 71 1019.7
20260904045103 49 0 0.0 0.0 0.00 0.00 0.00 71 1019.5
20260904045003 49 0 0.0 0.0 0.00 0.00 0.00 71 1019.7
20260904044903 49 0 0.0 0.0 0.00 0.00 0.00 71 1019.6
20260904044803 49 0 0.0 0.0 0.00 0.00 0.00 71 1019.7
20260904044703 49 0 0.0 0.0 0.00 0.00 0.00 71 1019.6
20260904044603 49 0 0.0 0.0 0.00 0.00 0.00 71 1019.5
20260904044504 49 0 0.0 0.0 0.00 0.00 0.00 71 1019.9
20260904044403 49 0 0.0 0.0 0.00 0.00 0.00 71 1019.7
20260904044303 49 0 0.0 0.0 0.00 0.00 0.00 71 1019.7
20260904044203 49 0 0.0 0.0 0.00 0.00 0.00 70 1019.4
20260904044103 49 0 0.0 0.0 0.00 0.00 0.00 71 1019.5
20260904044003 49 0 0.0 0.0 0.00 0.00 0.00 70 1019.5
20260904043904 49 0 0.0 0.0 0.00 0.00 0.00 70 1019.5
20260904043703 49 0 0.0 0.0 0.00 0.00 0.00 70 1019.7
20260904043603 49 0 0.0 0.0 0.00 0.00 0.00 70 1019.5
20260904043517 49 292 0.0 2.0 0.00 0.00 0.00 70 1019.5
20260904043503 49 285 0.0 2.0 0.00 0.00 0.00 69 1019.5
20260904043403 49 279 0.0 2.0 0.00 0.00 0.00 69 1019.4
20260904043318 49 268 0.0 2.0 0.00 0.00 0.00 70 1019.4
20260904043203 49 260 0.0 2.0 0.00 0.00 0.00 70 1019.5
20260904043117 49 260 0.0 2.0 0.00 0.00 0.00 69 1019.8
20260904043018 49 250 1.0 2.0 0.00 0.00 0.00 69 1019.6
20260904043003 49 247 1.0 2.0 0.00 0.00 0.00 69 1019.6
20260904042703 50 0 0.0 0.0 0.00 0.00 0.00 69 1019.3
20260904042603 50 0 0.0 0.0 0.00 0.00 0.00 69 1019.3
20260904042503 50 0 0.0 0.0 0.00 0.00 0.00 69 1019.5
20260904042403 50 0 0.0 0.0 0.00 0.00 0.00 69 1019.6
20260904042318 50 0 0.0 0.0 0.00 0.00 0.00 69 1019.3
20260904042117 50 0 0.0 0.0 0.00 0.00 0.00 69 1019.5
20260904042003 50 0 0.0 0.0 0.00 0.00 0.00 69 1019.4
20260904041804 50 0 0.0 0.0 0.00 0.00 0.00 69 1019.6
20260904041703 50 0 0.0 0.0 0.00 0.00 0.00 69 1019.3
20260904041603 50 0 0.0 0.0 0.00 0.00 0.00 69 1019.6
20260904041503 50 0 0.0 0.0 0.00 0.00 0.00 69 1019.5
20260904041403 50 0 0.0 0.0 0.00 0.00 0.00 68 1019.3
20260904041303 50 0 0.0 0.0 0.00 0.00 0.00 68 1019.3
20260904041203 50 0 0.0 0.0 0.00 0.00 0.00 68 1019.5
20260904040903 51 0 0.0 0.0 0.00 0.00 0.00 68 1019.2
20260904040803 51 0 0.0 0.0 0.00 0.00 0.00 68 1019.5
20260904040703 50 247 0.0 2.0 0.00 0.00 0.00 68 1019.6
20260904040603 51 247 0.0 2.0 0.00 0.00 0.00 68 1019.3
20260904040503 50 247 0.0 2.0 0.00 0.00 0.00 68 1019.2
20260904040403 51 247 0.0 2.0 0.00 0.00 0.00 68 1019.4
20260904040303 50 247 0.0 2.0 0.00 0.00 0.00 68 1019.2
20260904040105 50 247 0.0 2.0 0.00 0.00 0.00 68 1019.3
20260904040003 50 247 0.0 2.0 0.00 0.00 0.00 68 1019.4
20260904035803 51 247 2.0 2.0 0.00 0.00 0.00 68 1019.5
20260904035703 51 247 0.0 2.0 0.00 0.00 0.00 68 1019.3
20260904035603 51 247 0.0 2.0 0.00 0.00 0.00 67 1019.2
20260904035403 51 0 0.0 0.0 0.00 0.00 0.00 67 1019.1
20260904035306 51 0 0.0 0.0 0.00 0.00 0.00 67 1019.5
20260904035203 51 0 0.0 0.0 0.00 0.00 0.00 67 1019.4
20260904035103 51 0 0.0 0.0 0.00 0.00 0.00 67 1019.5
20260904035003 51 0 0.0 0.0 0.00 0.00 0.00 67 1019.3
20260904034903 51 0 0.0 0.0 0.00 0.00 0.00 67 1019.4
20260904034803 51 0 0.0 0.0 0.00 0.00 0.00 67 1019.4
20260904034703 51 0 0.0 0.0 0.00 0.00 0.00 67 1019.3
20260904034603 51 0 0.0 0.0 0.00 0.00 0.00 66 1019.6
20260904034503 51 0 0.0 0.0 0.00 0.00 0.00 66 1019.5
20260904034403 51 0 0.0 0.0 0.00 0.00 0.00 66 1019.3
20260904034318 51 270 0.0 2.0 0.00 0.00 0.00 66 1019.6
20260904034303 51 264 0.0 2.0 0.00 0.00 0.00 66 1019.5
20260904034203 51 261 0.0 2.0 0.00 0.00 0.00 66 1019.6
20260904034003 51 264 0.0 2.0 0.00 0.00 0.00 66 1019.4
20260904033903 51 270 0.0 2.0 0.00 0.00 0.00 66 1019.3
20260904033817 51 270 0.0 2.0 0.00 0.00 0.00 66 1019.3
20260904033803 51 271 0.0 2.0 0.00 0.00 0.00 66 1019.3
20260904033703 52 277 0.0 2.0 0.00 0.00 0.00 66 1019.3
20260904033503 52 281 0.0 2.0 0.00 0.00 0.00 65 1019.7
20260904033403 52 270 0.0 2.0 0.00 0.00 0.00 65 1019.3
20260904033303 52 0 0.0 0.0 0.00 0.00 0.00 65 1019.4
20260904033203 52 0 0.0 0.0 0.00 0.00 0.00 65 1019.3
20260904033103 52 0 0.0 0.0 0.00 0.00 0.00 65 1019.5
20260904033003 52 0 0.0 0.0 0.00 0.00 0.00 65 1019.5
20260904032903 52 0 0.0 0.0 0.00 0.00 0.00 65 1019.2
20260904032817 52 0 0.0 0.0 0.00 0.00 0.00 65 1019.4
20260904032703 52 0 0.0 0.0 0.00 0.00 0.00 65 1019.3
20260904032503 52 0 0.0 0.0 0.00 0.00 0.00 64 1019.1
20260904032403 52 0 0.0 0.0 0.00 0.00 0.00 65 1019.4
20260904032305 52 270 0.0 2.0 0.00 0.00 0.00 64 1019.2
20260904032203 52 270 0.0 2.0 0.00 0.00 0.00 64 1019.4
20260904032103 52 270 0.0 2.0 0.00 0.00 0.00 64 1019.3
20260904032003 52 270 0.0 2.0 0.00 0.00 0.00 64 1019.4
20260904031903 52 270 0.0 2.0 0.00 0.00 0.00 64 1019.4
20260904031803 53 0 0.0 0.0 0.00 0.00 0.00 64 1019.3
20260904031703 53 0 0.0 0.0 0.00 0.00 0.00 64 1019.2
20260904031618 53 0 0.0 0.0 0.00 0.00 0.00 64 1018.9
20260904031503 53 0 0.0 0.0 0.00 0.00 0.00 64 1019.1
20260904031417 53 0 0.0 0.0 0.00 0.00 0.00 64 1019.0
20260904031303 53 0 0.0 0.0 0.00 0.00 0.00 64 1019.1
20260904031103 53 0 0.0 0.0 0.00 0.00 0.00 64 1019.3
20260904031003 53 0 0.0 0.0 0.00 0.00 0.00 63 1019.4
20260904030903 53 0 0.0 0.0 0.00 0.00 0.00 63 1018.9
20260904030803 53 0 0.0 0.0 0.00 0.00 0.00 63 1019.2
20260904030703 53 0 0.0 0.0 0.00 0.00 0.00 63 1019.0
20260904030603 53 0 0.0 0.0 0.00 0.00 0.00 63 1019.2
20260904030503 53 0 0.0 0.0 0.00 0.00 0.00 63 1019.1
20260904030403 53 0 0.0 0.0 0.00 0.00 0.00 63 1019.0
20260904030303 53 0 0.0 0.0 0.00 0.00 0.00 63 1019.0
20260904030103 53 0 0.0 0.0 0.00 0.00 0.00 63 1019.1
20260904030003 53 0 0.0 0.0 0.00 0.00 0.00 64 1019.2
20260904025903 53 0 0.0 0.0 0.00 0.00 0.00 63 1018.9
20260904025703 53 0 0.0 0.0 0.00 0.00 0.00 63 1019.2
20260904025603 53 0 0.0 0.0 0.00 0.00 0.00 63 1019.1
20260904025503 53 0 0.0 0.0 0.00 0.00 0.00 63 1019.0
20260904025403 53 0 0.0 0.0 0.00 0.00 0.00 63 1019.2
20260904025306 53 0 0.0 0.0 0.00 0.00 0.00 63 1019.3
20260904025203 53 0 0.0 0.0 0.00 0.00 0.00 63 1019.3
20260904025103 53 0 0.0 0.0 0.00 0.00 0.00 63 1019.0
20260904025004 54 0 0.0 0.0 0.00 0.00 0.00 63 1018.9
20260904024903 54 0 0.0 0.0 0.00 0.00 0.00 63 1019.2
20260904024805 54 0 0.0 0.0 0.00 0.00 0.00 62 1019.0
20260904024703 54 0 0.0 0.0 0.00 0.00 0.00 62 1019.0
20260904024603 54 0 0.0 0.0 0.00 0.00 0.00 62 1019.0
20260904024503 54 0 0.0 0.0 0.00 0.00 0.00 62 1019.0
20260904024403 54 0 0.0 0.0 0.00 0.00 0.00 61 1019.0
20260904024317 54 0 0.0 0.0 0.00 0.00 0.00 61 1019.0
20260904024303 54 247 0.0 2.0 0.00 0.00 0.00 61 1019.1
20260904024203 54 256 0.0 2.0 0.00 0.00 0.00 61 1019.1
20260904024005 54 253 0.0 2.0 0.00 0.00 0.00 60 1019.0
20260904023903 55 251 0.0 2.0 0.00 0.00 0.00 60 1018.9
20260904023803 55 250 0.0 2.0 0.00 0.00 0.00 60 1019.1
20260904023708 55 249 0.0 2.0 0.00 0.00 0.00 60 1019.0
20260904023605 55 243 1.0 2.0 0.00 0.00 0.00 59 1019.0
20260904023503 55 247 2.0 2.0 0.00 0.00 0.00 59 1018.9
20260904023419 55 249 1.0 2.0 0.00 0.00 0.00 59 1019.0
20260904023403 55 250 1.0 2.0 0.00 0.00 0.00 59 1019.0
20260904023303 55 252 1.0 2.0 0.00 0.00 0.00 59 1019.2
20260904023103 55 264 2.0 2.0 0.00 0.00 0.00 59 1019.2
20260904023003 55 265 2.0 2.0 0.00 0.00 0.00 59 1019.1
20260904022903 55 261 1.0 2.0 0.00 0.00 0.00 59 1018.9
20260904022803 55 255 0.0 2.0 0.00 0.00 0.00 59 1019.0
20260904022703 55 252 0.0 2.0 0.00 0.00 0.00 59 1018.8
20260904022603 55 251 0.0 2.0 0.00 0.00 0.00 59 1019.1
20260904022503 55 248 0.0 2.0 0.00 0.00 0.00 58 1018.9
20260904022319 55 241 2.0 4.0 0.00 0.00 0.00 58 1019.0
20260904022305 55 240 2.0 4.0 0.00 0.00 0.00 58 1018.8
20260904022203 56 237 1.0 4.0 0.00 0.00 0.00 58 1019.0
20260904022003 55 231 2.0 4.0 0.00 0.00 0.00 58 1018.9
20260904021903 55 225 2.0 4.0 0.00 0.00 0.00 58 1019.4
20260904021803 55 225 2.0 2.0 0.00 0.00 0.00 58 1018.9
20260904021703 56 225 1.0 2.0 0.00 0.00 0.00 58 1019.0
20260904021618 56 0 0.0 0.0 0.00 0.00 0.00 58 1019.1
20260904021518 56 0 0.0 0.0 0.00 0.00 0.00 58 1018.8
20260904021503 56 0 0.0 0.0 0.00 0.00 0.00 58 1019.1
20260904021205 56 0 0.0 0.0 0.00 0.00 0.00 58 1018.8
20260904021103 56 0 0.0 0.0 0.00 0.00 0.00 58 1019.0
20260904021003 56 0 0.0 0.0 0.00 0.00 0.00 57 1018.9
20260904020903 56 247 0.0 2.0 0.00 0.00 0.00 57 1018.8
20260904020803 56 247 0.0 2.0 0.00 0.00 0.00 57 1018.8
20260904020703 56 243 0.0 4.0 0.00 0.00 0.00 57 1018.9
20260904020603 56 239 0.0 4.0 0.00 0.00 0.00 57 1018.9
20260904020503 56 237 0.0 4.0 0.00 0.00 0.00 57 1018.8
20260904020403 56 244 1.0 4.0 0.00 0.00 0.00 57 1018.7
20260904020303 56 237 1.0 4.0 0.00 0.00 0.00 57 1018.7
20260904020203 56 234 2.0 4.0 0.00 0.00 0.00 56 1018.8
20260904020003 56 234 2.0 4.0 0.00 0.00 0.00 56 1019.0
20260904015903 56 223 2.0 4.0 0.00 0.00 0.00 57 1018.9
20260904015803 56 231 1.0 4.0 0.00 0.00 0.00 56 1018.8
20260904015703 56 240 1.0 4.0 0.00 0.00 0.00 56 1018.8
20260904015603 56 243 0.0 4.0 0.00 0.00 0.00 56 1018.8
20260904015503 56 240 0.0 4.0 0.00 0.00 0.00 56 1018.8
20260904015405 56 244 2.0 4.0 0.00 0.00 0.00 56 1018.8
20260904015306 56 248 1.0 4.0 0.00 0.00 0.00 56 1018.7
20260904015203 56 252 2.0 4.0 0.00 0.00 0.00 56 1018.8
20260904015103 56 253 2.0 4.0 0.00 0.00 0.00 56 1018.7
20260904015004 57 259 1.0 2.0 0.00 0.00 0.00 56 1018.8
20260904014903 57 251 1.0 2.0 0.00 0.00 0.00 56 1018.7
20260904014803 57 248 1.0 4.0 0.00 0.00 0.00 56 1018.6
20260904014703 57 246 2.0 4.0 0.00 0.00 0.00 55 1018.5
20260904014617 57 248 2.0 4.0 0.00 0.00 0.00 55 1018.7
20260904014603 57 247 2.0 4.0 0.00 0.00 0.00 55 1018.7
20260904014508 57 246 1.0 4.0 0.00 0.00 0.00 55 1018.7
20260904014303 57 242 2.0 4.0 0.00 0.00 0.00 55 1018.7
20260904014205 57 241 2.0 4.0 0.00 0.00 0.00 55 1018.7
20260904014103 57 246 2.0 4.0 0.00 0.00 0.00 55 1018.6
20260904014017 57 243 2.0 4.0 0.00 0.00 0.00 54 1018.6
20260904014003 57 242 2.0 4.0 0.00 0.00 0.00 54 1018.6
20260904013903 57 248 2.0 4.0 0.00 0.00 0.00 55 1018.6
20260904013818 57 247 2.0 4.0 0.00 0.00 0.00 54 1018.5
20260904013703 57 246 1.0 4.0 0.00 0.00 0.00 55 1018.5
20260904013503 57 238 2.0 4.0 0.00 0.00 0.00 54 1018.5
20260904013403 57 236 3.0 4.0 0.00 0.00 0.00 54 1018.8
20260904013303 57 239 2.0 4.0 0.00 0.00 0.00 54 1018.7
20260904013205 57 239 2.0 4.0 0.00 0.00 0.00 54 1018.4
20260904013103 58 234 2.0 4.0 0.00 0.00 0.00 53 1018.6
20260904013017 58 235 2.0 4.0 0.00 0.00 0.00 53 1018.3
20260904013003 58 237 2.0 4.0 0.00 0.00 0.00 53 1018.3
20260904012903 58 231 2.0 4.0 0.00 0.00 0.00 53 1018.5
20260904012703 58 229 2.0 4.0 0.00 0.00 0.00 53 1018.4
20260904012603 58 229 2.0 4.0 0.00 0.00 0.00 53 1018.3
20260904012503 58 225 2.0 4.0 0.00 0.00 0.00 53 1018.4
20260904012403 58 227 2.0 4.0 0.00 0.00 0.00 52 1018.4
20260904012306 58 228 2.0 4.0 0.00 0.00 0.00 52 1018.6
20260904012203 58 230 2.0 4.0 0.00 0.00 0.00 52 1018.3
20260904012103 58 237 2.0 4.0 0.00 0.00 0.00 52 1018.5
20260904012003 58 241 2.0 4.0 0.00 0.00 0.00 52 1018.1
20260904011903 58 248 2.0 4.0 0.00 0.00 0.00 52 1018.3
20260904011803 58 257 2.0 4.0 0.00 0.00 0.00 52 1018.2
20260904011703 58 257 3.0 4.0 0.00 0.00 0.00 51 1018.3
20260904011603 58 249 3.0 4.0 0.00 0.00 0.00 51 1018.3
20260904011503 58 248 2.0 4.0 0.00 0.00 0.00 52 1018.3
20260904011403 58 246 1.0 4.0 0.00 0.00 0.00 52 1018.0
20260904011303 58 238 2.0 4.0 0.00 0.00 0.00 52 1018.3
20260904011103 58 237 1.0 4.0 0.00 0.00 0.00 52 1018.0
20260904011003 58 237 2.0 4.0 0.00 0.00 0.00 52 1018.1
20260904010903 58 236 2.0 4.0 0.00 0.00 0.00 52 1018.1
20260904010803 58 238 2.0 4.0 0.00 0.00 0.00 52 1018.2
20260904010703 58 244 2.0 4.0 0.00 0.00 0.00 52 1018.1
20260904010603 58 245 2.0 2.0 0.00 0.00 0.00 52 1018.3
20260904010503 58 242 2.0 4.0 0.00 0.00 0.00 52 1018.1
20260904010403 58 239 2.0 4.0 0.00 0.00 0.00 52 1018.1
20260904010303 59 240 2.0 4.0 0.00 0.00 0.00 52 1017.8
20260904010203 59 238 2.0 4.0 0.00 0.00 0.00 52 1018.1
20260904010103 59 234 2.0 4.0 0.00 0.00 0.00 52 1018.2
20260904010003 59 233 2.0 4.0 0.00 0.00 0.00 52 1017.8
20260904005917 59 233 2.0 4.0 0.00 0.00 0.00 52 1018.0
20260904005903 59 232 2.0 4.0 0.00 0.00 0.00 51 1018.1
20260904005803 59 229 2.0 4.0 0.00 0.00 0.00 51 1018.1
20260904005718 59 229 2.0 4.0 0.00 0.00 0.00 51 1018.2
20260904005603 59 230 2.0 4.0 0.00 0.00 0.00 51 1018.0
20260904005403 59 230 3.0 4.0 0.00 0.00 0.00 51 1018.0
20260904005317 59 230 2.0 4.0 0.00 0.00 0.00 51 1018.1
20260904005306 59 229 2.0 4.0 0.00 0.00 0.00 51 1018.1
20260904005003 59 225 2.0 4.0 0.00 0.00 0.00 51 1018.1
20260904004903 59 225 2.0 4.0 0.00 0.00 0.00 51 1017.9
20260904004818 59 227 2.0 4.0 0.00 0.00 0.00 51 1017.7
20260904004703 59 230 2.0 4.0 0.00 0.00 0.00 51 1017.7
20260904004403 59 229 2.0 4.0 0.00 0.00 0.00 50 1017.9
20260904004303 59 230 2.0 4.0 0.00 0.00 0.00 50 1017.7
20260904004118 60 237 4.0 4.0 0.00 0.00 0.00 49 1017.7
20260904004103 60 238 4.0 4.0 0.00 0.00 0.00 49 1017.7
20260904004003 60 243 2.0 4.0 0.00 0.00 0.00 49 1017.6
20260904003803 60 249 1.0 4.0 0.00 0.00 0.00 50 1017.8
20260904003703 60 245 2.0 4.0 0.00 0.00 0.00 49 1017.6
20260904003603 60 245 2.0 4.0 0.00 0.00 0.00 50 1017.9
20260904003303 60 236 2.0 4.0 0.00 0.00 0.00 49 1017.7
20260904003203 60 234 2.0 4.0 0.00 0.00 0.00 49 1017.9
20260904003103 60 230 2.0 4.0 0.00 0.00 0.00 49 1018.0
20260904003003 60 228 2.0 4.0 0.00 0.00 0.00 49 1017.8
20260904002903 60 226 2.0 4.0 0.00 0.00 0.00 49 1018.0
20260904002803 60 231 2.0 4.0 0.00 0.00 0.00 49 1017.7
20260904002703 60 233 2.0 4.0 0.00 0.00 0.00 49 1017.9
20260904002603 60 233 2.0 4.0 0.00 0.00 0.00 49 1017.6
20260904002503 60 235 2.0 4.0 0.00 0.00 0.00 49 1017.6
20260904002403 60 239 2.0 4.0 0.00 0.00 0.00 50 1017.9
20260904002316 60 235 2.0 4.0 0.00 0.00 0.00 49 1017.5
20260904002306 60 235 1.0 4.0 0.00 0.00 0.00 49 1017.6
20260904002203 60 236 1.0 4.0 0.00 0.00 0.00 49 1017.6
20260904002003 60 236 2.0 4.0 0.00 0.00 0.00 49 1017.9
20260904001903 60 231 3.0 4.0 0.00 0.00 0.00 49 1017.7
20260904001803 60 234 2.0 4.0 0.00 0.00 0.00 49 1017.7
20260904001705 60 233 3.0 4.0 0.00 0.00 0.00 49 1017.7
20260904001603 60 234 3.0 4.0 0.00 0.00 0.00 49 1017.6
20260904001517 60 240 2.0 4.0 0.00 0.00 0.00 49 1017.5
20260904001503 60 242 2.0 4.0 0.00 0.00 0.00 49 1017.6
20260904001403 60 253 2.0 4.0 0.00 0.00 0.00 49 1017.6
20260904001203 60 244 2.0 6.0 0.00 0.00 0.00 49 1017.7
20260904001103 60 243 2.0 6.0 0.00 0.00 0.00 48 1017.6
20260904001004 60 234 2.0 6.0 0.00 0.00 0.00 48 1017.5
20260904000903 60 231 2.0 6.0 0.00 0.00 0.00 48 1017.6
20260904000803 60 233 3.0 6.0 0.00 0.00 0.00 48 1017.7
20260904000703 61 235 3.0 6.0 0.00 0.00 0.00 48 1017.6
20260904000603 60 230 3.0 6.0 0.00 0.00 0.00 48 1017.5
20260904000503 61 229 2.0 4.0 0.00 0.00 0.00 48 1017.6
20260904000303 61 232 4.0 4.0 0.00 0.00 0.00 47 1017.4
20260904000204 61 230 2.0 4.0 0.00 0.00 0.00 48 1017.6
20260904000103 61 229 2.0 6.0 0.00 0.00 0.00 48 1017.8
20260904000004 60 235 2.0 6.0 0.00 0.00 0.00 48 1017.5
20260903235903 60 236 2.0 6.0 0.00 0.00 0.00 48 1017.7
20260903235821 60 231 2.0 6.0 0.00 0.00 0.00 48 1017.5
20260903235803 60 232 2.0 6.0 0.00 0.00 0.00 48 1017.5
20260903235703 61 235 2.0 6.0 0.00 0.00 0.00 48 1017.5
20260903235503 61 245 2.0 6.0 0.00 0.00 0.00 48 1017.6
20260903235418 61 244 2.0 6.0 0.00 0.00 0.00 48 1017.5
20260903235404 61 243 2.0 6.0 0.00 0.00 0.00 48 1017.5
20260903235305 61 243 2.0 6.0 0.00 0.00 0.00 48 1017.4
20260903235018 61 232 3.0 4.0 0.00 0.00 0.00 48 1017.5
20260903235003 61 231 3.0 4.0 0.00 0.00 0.00 48 1017.5
20260903234903 61 232 2.0 4.0 0.00 0.00 0.00 48 1017.6
20260903234703 61 226 2.0 4.0 0.00 0.00 0.00 47 1017.5
20260903234616 61 228 2.0 4.0 0.00 0.00 0.00 48 1017.3
20260903234603 61 229 2.0 4.0 0.00 0.00 0.00 48 1017.3
20260903234503 61 235 1.0 6.0 0.00 0.00 0.00 48 1017.5
20260903234418 61 234 2.0 6.0 0.00 0.00 0.00 47 1017.3
20260903234318 61 230 2.0 6.0 0.00 0.00 0.00 47 1017.4
20260903234303 61 231 3.0 6.0 0.00 0.00 0.00 47 1017.4
20260903234003 61 240 3.0 6.0 0.00 0.00 0.00 47 1017.3
20260903233903 61 244 2.0 4.0 0.00 0.00 0.00 47 1017.5
20260903233803 61 246 2.0 4.0 0.00 0.00 0.00 47 1017.3
20260903233703 61 244 3.0 4.0 0.00 0.00 0.00 47 1017.3
20260903233603 61 246 2.0 4.0 0.00 0.00 0.00 47 1017.5
20260903233503 61 244 2.0 4.0 0.00 0.00 0.00 47 1017.2
20260903233403 61 241 2.0 4.0 0.00 0.00 0.00 46 1017.4
20260903233303 61 240 2.0 4.0 0.00 0.00 0.00 46 1017.3
20260903233203 61 237 2.0 4.0 0.00 0.00 0.00 46 1017.1
20260903233103 62 238 2.0 4.0 0.00 0.00 0.00 46 1017.2
20260903233003 62 241 3.0 4.0 0.00 0.00 0.00 46 1017.2
20260903232903 62 233 2.0 6.0 0.00 0.00 0.00 46 1017.0
20260903232803 62 225 2.0 6.0 0.00 0.00 0.00 46 1017.3
20260903232703 62 221 3.0 6.0 0.00 0.00 0.00 46 1017.1
20260903232603 62 216 2.0 6.0 0.00 0.00 0.00 46 1017.0
20260903232503 62 216 4.0 6.0 0.00 0.00 0.00 46 1017.1
20260903232403 62 219 3.0 6.0 0.00 0.00 0.00 46 1017.0
20260903232318 62 224 3.0 7.0 0.00 0.00 0.00 46 1017.0
20260903232306 62 225 2.0 7.0 0.00 0.00 0.00 46 1017.2
20260903232203 62 228 2.0 7.0 0.00 0.00 0.00 46 1017.2
20260903232003 62 233 2.0 7.0 0.00 0.00 0.00 45 1017.1
20260903231916 62 236 3.0 7.0 0.00 0.00 0.00 45 1017.3
20260903231903 62 236 4.0 7.0 0.00 0.00 0.00 45 1017.1
20260903231803 62 237 2.0 6.0 0.00 0.00 0.00 45 1017.2
20260903231603 62 236 2.0 6.0 0.00 0.00 0.00 45 1017.1
20260903231503 62 229 4.0 6.0 0.00 0.00 0.00 45 1016.9
20260903231403 62 224 3.0 4.0 0.00 0.00 0.00 45 1017.0
20260903231303 62 220 2.0 6.0 0.00 0.00 0.00 45 1016.9
20260903231203 62 221 2.0 6.0 0.00 0.00 0.00 45 1016.8
20260903231117 62 226 3.0 6.0 0.00 0.00 0.00 45 1017.1
20260903231103 62 227 2.0 6.0 0.00 0.00 0.00 44 1016.9
20260903231003 62 233 2.0 6.0 0.00 0.00 0.00 44 1016.9
20260903230803 62 238 3.0 6.0 0.00 0.00 0.00 44 1017.1
20260903230703 62 240 2.0 4.0 0.00 0.00 0.00 44 1016.9
20260903230604 62 232 2.0 4.0 0.00 0.00 0.00 44 1016.9
20260903230503 62 229 2.0 4.0 0.00 0.00 0.00 44 1016.9
20260903230403 63 231 2.0 4.0 0.00 0.00 0.00 44 1016.9
20260903230203 63 236 2.0 4.0 0.00 0.00 0.00 44 1016.6
20260903230103 63 237 2.0 4.0 0.00 0.00 0.00 44 1016.6
20260903230003 63 237 2.0 4.0 0.00 0.00 0.00 44 1016.6
20260903225916 63 236 2.0 4.0 0.00 0.00 0.00 43 1016.7
20260903225804 63 243 3.0 6.0 0.00 0.00 0.00 43 1016.7
20260903225717 63 239 2.0 6.0 0.00 0.00 0.00 44 1016.8
20260903225403 63 236 3.0 7.0 0.00 0.00 0.00 43 1016.6
20260903225306 63 230 2.0 7.0 0.00 0.00 0.00 43 1016.4
20260903225203 63 230 4.0 7.0 0.00 0.00 0.00 43 1016.4
20260903225103 63 235 2.0 7.0 0.00 0.00 0.00 43 1016.5
20260903225003 63 231 4.0 7.0 0.00 0.00 0.00 43 1016.6
20260903224903 63 213 4.0 7.0 0.00 0.00 0.00 43 1016.6
20260903224805 63 205 2.0 4.0 0.00 0.00 0.00 43 1016.5
20260903224703 63 214 2.0 4.0 0.00 0.00 0.00 43 1016.4
20260903224603 63 215 2.0 4.0 0.00 0.00 0.00 43 1016.6
20260903224503 63 217 2.0 6.0 0.00 0.00 0.00 43 1016.6
20260903224403 64 226 2.0 9.0 0.00 0.00 0.00 42 1016.6
20260903224303 64 240 2.0 9.0 0.00 0.00 0.00 42 1016.5
20260903224203 64 235 2.0 9.0 0.00 0.00 0.00 42 1016.4
20260903224103 64 234 2.0 9.0 0.00 0.00 0.00 42 1016.5
20260903224003 64 238 4.0 9.0 0.00 0.00 0.00 42 1016.5
20260903223905 64 240 4.0 7.0 0.00 0.00 0.00 42 1016.3
20260903223803 64 229 3.0 7.0 0.00 0.00 0.00 42 1016.4
20260903223703 64 227 3.0 6.0 0.00 0.00 0.00 42 1016.2
20260903223603 64 215 4.0 8.0 0.00 0.00 0.00 42 1016.4
20260903223505 64 217 3.0 8.0 0.00 0.00 0.00 42 1016.4
20260903223403 64 219 2.0 8.0 0.00 0.00 0.00 41 1016.3
20260903223303 64 223 3.0 8.0 0.00 0.00 0.00 41 1016.3
20260903223218 64 227 3.0 8.0 0.00 0.00 0.00 41 1016.3
20260903223203 64 229 3.0 8.0 0.00 0.00 0.00 41 1016.3
20260903223104 64 242 4.0 8.0 0.00 0.00 0.00 41 1016.1
20260903222905 64 243 2.0 8.0 0.00 0.00 0.00 42 1016.4
20260903222803 64 239 3.0 8.0 0.00 0.00 0.00 41 1016.4
20260903222703 64 241 3.0 8.0 0.00 0.00 0.00 41 1016.2
20260903222603 64 241 3.0 8.0 0.00 0.00 0.00 41 1016.2
20260903222503 64 237 3.0 8.0 0.00 0.00 0.00 41 1016.2
20260903222403 64 232 4.0 8.0 0.00 0.00 0.00 41 1016.2
20260903222318 64 233 2.0 8.0 0.00 0.00 0.00 42 1016.1
20260903222305 64 231 2.0 7.0 0.00 0.00 0.00 42 1016.2
20260903222203 64 222 2.0 7.0 0.00 0.00 0.00 41 1016.1
20260903222003 64 218 2.0 7.0 0.00 0.00 0.00 42 1016.1
20260903221918 64 227 3.0 7.0 0.00 0.00 0.00 41 1016.3
20260903221903 64 229 2.0 7.0 0.00 0.00 0.00 42 1016.1
20260903221803 64 236 4.0 7.0 0.00 0.00 0.00 41 1016.0
20260903221603 64 251 2.0 7.0 0.00 0.00 0.00 41 1015.9
20260903221503 64 245 4.0 7.0 0.00 0.00 0.00 41 1015.9
20260903221417 64 242 2.0 7.0 0.00 0.00 0.00 41 1016.0
20260903221403 64 241 2.0 7.0 0.00 0.00 0.00 41 1016.0
20260903221303 64 236 2.0 7.0 0.00 0.00 0.00 41 1016.1
20260903221103 64 223 3.0 7.0 0.00 0.00 0.00 41 1015.9
20260903221003 65 228 2.0 7.0 0.00 0.00 0.00 41 1015.9
20260903220903 65 228 3.0 7.0 0.00 0.00 0.00 41 1016.0
20260903220803 65 223 4.0 7.0 0.00 0.00 0.00 40 1016.0
20260903220703 65 228 4.0 8.0 0.00 0.00 0.00 40 1016.0
20260903220618 65 229 2.0 8.0 0.00 0.00 0.00 41 1016.1
20260903220603 65 227 2.0 8.0 0.00 0.00 0.00 41 1016.1
20260903220516 65 219 3.0 8.0 0.00 0.00 0.00 40 1016.0
20260903220503 65 216 3.0 8.0 0.00 0.00 0.00 40 1016.0
20260903220203 65 214 4.0 11.0 0.00 0.00 0.00 40 1016.0
20260903220003 65 217 4.0 11.0 0.00 0.00 0.00 40 1015.8
20260903215903 65 224 4.0 11.0 0.00 0.00 0.00 40 1015.9
20260903215803 65 236 6.0 11.0 0.00 0.00 0.00 40 1016.1
20260903215703 65 245 5.0 11.0 0.00 0.00 0.00 40 1015.9
20260903215603 65 265 4.0 7.0 0.00 0.00 0.00 40 1016.0
20260903215503 65 267 3.0 7.0 0.00 0.00 0.00 40 1015.8
20260903215403 65 260 3.0 8.0 0.00 0.00 0.00 40 1016.0
20260903215306 65 233 2.0 8.0 0.00 0.00 0.00 40 1016.0
20260903215203 65 224 2.0 9.0 0.00 0.00 0.00 40 1015.9
20260903215103 65 217 3.0 11.0 0.00 0.00 0.00 39 1015.8
20260903215003 66 207 3.0 11.0 0.00 0.00 0.00 39 1015.7
20260903214903 66 206 5.0 11.0 0.00 0.00 0.00 39 1015.7
20260903214803 66 218 5.0 11.0 0.00 0.00 0.00 39 1015.8
20260903214703 66 228 5.0 11.0 0.00 0.00 0.00 39 1015.7
20260903214603 66 222 3.0 9.0 0.00 0.00 0.00 39 1015.8
20260903214503 66 224 3.0 9.0 0.00 0.00 0.00 39 1015.8
20260903214403 66 231 3.0 9.0 0.00 0.00 0.00 39 1015.7
20260903214303 66 236 6.0 13.0 0.00 0.00 0.00 39 1015.8
20260903214203 66 236 4.0 13.0 0.00 0.00 0.00 39 1015.7
20260903214103 66 239 3.0 13.0 0.00 0.00 0.00 39 1015.7
20260903214003 66 258 4.0 13.0 0.00 0.00 0.00 39 1015.7
20260903213903 66 251 5.0 13.0 0.00 0.00 0.00 39 1015.5
20260903213816 66 246 6.0 13.0 0.00 0.00 0.00 39 1015.6
20260903213803 66 245 6.0 13.0 0.00 0.00 0.00 39 1015.6
20260903213703 66 243 3.0 8.0 0.00 0.00 0.00 39 1015.5
20260903213518 66 234 4.0 11.0 0.00 0.00 0.00 39 1015.5
20260903213503 67 230 3.0 11.0 0.00 0.00 0.00 39 1015.5
20260903213403 67 227 4.0 11.0 0.00 0.00 0.00 39 1015.4
20260903213203 67 220 4.0 11.0 0.00 0.00 0.00 39 1015.7
20260903213103 67 220 6.0 11.0 0.00 0.00 0.00 39 1015.6
20260903213003 67 216 4.0 11.0 0.00 0.00 0.00 39 1015.6
20260903212903 67 223 5.0 11.0 0.00 0.00 0.00 39 1015.5
20260903212819 67 230 5.0 11.0 0.00 0.00 0.00 39 1015.7
20260903212803 67 233 5.0 11.0 0.00 0.00 0.00 39 1015.7
20260903212703 67 239 4.0 8.0 0.00 0.00 0.00 40 1015.5
20260903212518 67 239 4.0 11.0 0.00 0.00 0.00 39 1015.3
20260903212503 67 240 4.0 11.0 0.00 0.00 0.00 39 1015.3
20260903212403 67 236 4.0 11.0 0.00 0.00 0.00 40 1015.6
20260903212203 67 238 5.0 11.0 0.00 0.00 0.00 39 1015.2
20260903212103 67 236 4.0 11.0 0.00 0.00 0.00 40 1015.4
20260903212003 67 235 5.0 11.0 0.00 0.00 0.00 39 1015.3
20260903211903 67 240 7.0 11.0 0.00 0.00 0.00 39 1015.4
20260903211803 67 223 4.0 11.0 0.00 0.00 0.00 39 1015.4
20260903211703 67 213 4.0 11.0 0.00 0.00 0.00 39 1015.4
20260903211603 67 210 4.0 11.0 0.00 0.00 0.00 39 1015.3
20260903211503 67 212 4.0 11.0 0.00 0.00 0.00 39 1015.2
20260903211417 67 207 5.0 11.0 0.00 0.00 0.00 39 1015.3
20260903211403 67 208 5.0 11.0 0.00 0.00 0.00 39 1015.3
20260903211303 67 224 6.0 11.0 0.00 0.00 0.00 38 1015.3
20260903211103 68 254 4.0 11.0 0.00 0.00 0.00 39 1015.4
20260903211003 68 252 4.0 13.0 0.00 0.00 0.00 39 1015.2
20260903210903 68 250 4.0 13.0 0.00 0.00 0.00 39 1015.3
20260903210803 68 245 4.0 13.0 0.00 0.00 0.00 39 1015.2
20260903210703 68 235 5.0 13.0 0.00 0.00 0.00 39 1015.0
20260903210603 67 228 7.0 13.0 0.00 0.00 0.00 38 1015.2
20260903210503 68 234 7.0 13.0 0.00 0.00 0.00 39 1015.3
20260903210303 68 242 8.0 13.0 0.00 0.00 0.00 39 1015.3
20260903210203 68 249 7.0 11.0 0.00 0.00 0.00 39 1015.3
20260903210103 68 251 7.0 11.0 0.00 0.00 0.00 39 1015.5
20260903210003 68 252 7.0 11.0 0.00 0.00 0.00 39 1015.2
20260903205903 68 241 4.0 13.0 0.00 0.00 0.00 39 1015.3
20260903205803 68 235 4.0 13.0 0.00 0.00 0.00 39 1015.1
20260903205703 68 229 5.0 13.0 0.00 0.00 0.00 39 1015.4
20260903205603 68 223 4.0 13.0 0.00 0.00 0.00 39 1015.0
20260903205518 68 212 4.0 13.0 0.00 0.00 0.00 39 1015.4
20260903205503 68 210 4.0 13.0 0.00 0.00 0.00 39 1015.3
20260903205408 68 212 8.0 13.0 0.00 0.00 0.00 39 1015.5
20260903205203 68 217 6.0 9.0 0.00 0.00 0.00 39 1015.4
20260903205103 68 226 4.0 9.0 0.00 0.00 0.00 40 1015.3
20260903205003 68 239 4.0 9.0 0.00 0.00 0.00 39 1015.3
20260903204903 68 248 4.0 8.0 0.00 0.00 0.00 40 1015.3
20260903204803 68 238 4.0 8.0 0.00 0.00 0.00 39 1015.2
20260903204703 68 235 4.0 11.0 0.00 0.00 0.00 39 1015.2
20260903204603 68 216 4.0 11.0 0.00 0.00 0.00 39 1015.3
20260903204503 68 207 4.0 11.0 0.00 0.00 0.00 39 1015.3
20260903204403 68 173 4.0 11.0 0.00 0.00 0.00 39 1015.3
20260903204303 68 194 3.0 11.0 0.00 0.00 0.00 39 1015.3
20260903204203 68 202 5.0 11.0 0.00 0.00 0.00 39 1015.3
20260903204103 68 217 4.0 11.0 0.00 0.00 0.00 39 1015.1
20260903204003 68 233 5.0 11.0 0.00 0.00 0.00 39 1015.3
20260903203903 68 243 4.0 11.0 0.00 0.00 0.00 39 1015.1
20260903203803 68 240 4.0 11.0 0.00 0.00 0.00 39 1015.2
20260903203703 68 240 4.0 13.0 0.00 0.00 0.00 39 1015.2
20260903203603 68 243 7.0 13.0 0.00 0.00 0.00 39 1015.0
20260903203503 68 236 5.0 13.0 0.00 0.00 0.00 39 1015.2
20260903203403 68 232 3.0 13.0 0.00 0.00 0.00 39 1014.9
20260903203303 68 240 7.0 14.0 0.00 0.00 0.00 39 1015.0
20260903203203 68 239 7.0 14.0 0.00 0.00 0.00 39 1015.0
20260903203103 68 243 6.0 14.0 0.00 0.00 0.00 39 1015.2
20260903203017 68 248 8.0 14.0 0.00 0.00 0.00 39 1015.1
20260903202903 68 247 8.0 14.0 0.00 0.00 0.00 39 1015.0
20260903202703 69 225 4.0 15.0 0.00 0.00 0.00 39 1015.1
20260903202603 68 224 3.0 15.0 0.00 0.00 0.00 39 1015.1
20260903202503 68 228 8.0 15.0 0.00 0.00 0.00 39 1015.0
20260903202403 68 232 8.0 15.0 0.00 0.00 0.00 39 1015.2
20260903202306 69 243 5.0 13.0 0.00 0.00 0.00 39 1015.2
20260903202203 69 249 8.0 13.0 0.00 0.00 0.00 39 1015.1
20260903202103 69 250 6.0 13.0 0.00 0.00 0.00 40 1015.0
20260903202003 69 257 6.0 13.0 0.00 0.00 0.00 40 1015.1
20260903201903 69 254 4.0 11.0 0.00 0.00 0.00 40 1014.9
20260903201803 69 252 6.0 11.0 0.00 0.00 0.00 40 1015.1
20260903201703 69 252 4.0 11.0 0.00 0.00 0.00 41 1015.2
20260903201603 69 239 5.0 11.0 0.00 0.00 0.00 41 1015.1
20260903201503 69 221 6.0 13.0 0.00 0.00 0.00 41 1015.0
20260903201403 69 225 6.0 13.0 0.00 0.00 0.00 41 1015.0
20260903201303 69 225 4.0 13.0 0.00 0.00 0.00 42 1014.9
20260903201203 68 217 4.0 13.0 0.00 0.00 0.00 42 1014.9
20260903201003 68 214 8.0 13.0 0.00 0.00 0.00 41 1014.8
20260903200917 69 185 7.0 11.0 0.00 0.00 0.00 41 1015.1
20260903200903 69 173 7.0 11.0 0.00 0.00 0.00 41 1015.1
20260903200803 69 166 4.0 11.0 0.00 0.00 0.00 41 1014.9
20260903200617 69 199 4.0 11.0 0.00 0.00 0.00 41 1015.0
20260903200603 69 200 4.0 11.0 0.00 0.00 0.00 41 1015.0
20260903200503 70 211 4.0 11.0 0.00 0.00 0.00 41 1015.1
20260903200303 69 220 4.0 11.0 0.00 0.00 0.00 40 1015.0
20260903200203 69 215 4.0 11.0 0.00 0.00 0.00 40 1015.0
20260903200003 69 206 5.0 11.0 0.00 0.00 0.00 39 1014.9
20260903195903 69 220 5.0 11.0 0.00 0.00 0.00 39 1014.9
20260903195703 69 245 5.0 11.0 0.00 0.00 0.00 39 1015.0
20260903195603 69 244 6.0 9.0 0.00 0.00 0.00 38 1014.9
20260903195518 69 243 4.0 15.0 0.00 0.00 0.00 39 1014.9
20260903195503 69 245 5.0 15.0 0.00 0.00 0.00 39 1014.9
20260903195403 69 246 6.0 15.0 0.00 0.00 0.00 38 1014.9
20260903195203 69 236 3.0 15.0 0.00 0.00 0.00 38 1015.1
20260903195103 69 225 10.0 15.0 0.00 0.00 0.00 38 1014.9
20260903195003 69 225 5.0 14.0 0.00 0.00 0.00 38 1015.0
20260903194917 69 223 8.0 14.0 0.00 0.00 0.00 39 1015.1
20260903194903 69 221 8.0 14.0 0.00 0.00 0.00 39 1015.1
20260903194803 69 217 8.0 14.0 0.00 0.00 0.00 39 1015.1
20260903194617 69 229 5.0 11.0 0.00 0.00 0.00 39 1014.8
20260903194603 69 232 5.0 11.0 0.00 0.00 0.00 39 1014.8
20260903194503 70 238 3.0 11.0 0.00 0.00 0.00 38 1014.8
20260903194303 69 229 5.0 13.0 0.00 0.00 0.00 39 1015.0
20260903194203 69 229 4.0 13.0 0.00 0.00 0.00 39 1015.0
20260903194103 69 222 6.0 13.0 0.00 0.00 0.00 39 1015.0
20260903194003 69 218 5.0 13.0 0.00 0.00 0.00 39 1015.0
20260903193903 69 209 7.0 13.0 0.00 0.00 0.00 38 1014.9
20260903193803 69 211 4.0 13.0 0.00 0.00 0.00 39 1015.0
20260903193703 69 218 5.0 13.0 0.00 0.00 0.00 40 1015.0
20260903193603 69 219 9.0 13.0 0.00 0.00 0.00 40 1014.9
20260903193503 69 213 6.0 13.0 0.00 0.00 0.00 40 1014.9
20260903193403 70 215 4.0 13.0 0.00 0.00 0.00 41 1014.9
20260903193303 69 209 4.0 13.0 0.00 0.00 0.00 41 1014.9
20260903193203 69 213 4.0 13.0 0.00 0.00 0.00 41 1014.8
20260903193103 68 208 7.0 15.0 0.00 0.00 0.00 41 1015.0
20260903193003 69 207 5.0 15.0 0.00 0.00 0.00 42 1014.8
20260903192903 69 210 5.0 15.0 0.00 0.00 0.00 42 1014.9
20260903192803 69 210 7.0 15.0 0.00 0.00 0.00 42 1014.8
20260903192718 69 202 7.0 15.0 0.00 0.00 0.00 41 1015.1
20260903192703 68 199 9.0 15.0 0.00 0.00 0.00 41 1014.8
20260903192617 69 198 8.0 15.0 0.00 0.00 0.00 41 1014.8
20260903192306 69 207 4.0 13.0 0.00 0.00 0.00 41 1015.1
20260903192217 69 232 4.0 15.0 0.00 0.00 0.00 40 1014.9
20260903192203 69 233 4.0 15.0 0.00 0.00 0.00 40 1014.9
20260903192103 69 231 4.0 15.0 0.00 0.00 0.00 41 1014.7
20260903191904 69 239 4.0 15.0 0.00 0.00 0.00 40 1014.7
20260903191803 69 244 7.0 15.0 0.00 0.00 0.00 41 1015.1
20260903191703 69 237 9.0 15.0 0.00 0.00 0.00 40 1015.0
20260903191603 70 240 6.0 13.0 0.00 0.00 0.00 40 1015.0
20260903191503 69 240 5.0 13.0 0.00 0.00 0.00 40 1014.8
20260903191403 69 240 8.0 14.0 0.00 0.00 0.00 39 1014.7
20260903191317 69 243 5.0 14.0 0.00 0.00 0.00 39 1014.8
20260903191303 69 246 5.0 14.0 0.00 0.00 0.00 39 1014.8
20260903191203 69 255 7.0 17.0 0.00 0.00 0.00 39 1014.7
20260903191003 69 250 7.0 17.0 0.00 0.00 0.00 39 1014.8
20260903190903 69 252 7.0 17.0 0.00 0.00 0.00 38 1014.9
20260903190803 69 247 6.0 17.0 0.00 0.00 0.00 38 1014.7
20260903190603 69 250 8.0 16.0 0.00 0.00 0.00 38 1015.2
20260903190503 69 249 9.0 17.0 0.00 0.00 0.00 38 1014.8
20260903190403 69 249 8.0 17.0 0.00 0.00 0.00 38 1014.8
20260903190303 69 242 10.0 17.0 0.00 0.00 0.00 38 1014.9
20260903190217 69 235 8.0 17.0 0.00 0.00 0.00 38 1015.0
20260903185903 69 206 10.0 17.0 0.00 0.00 0.00 38 1014.8
20260903185803 69 193 11.0 17.0 0.00 0.00 0.00 38 1015.1
20260903185703 70 182 5.0 11.0 0.00 0.00 0.00 38 1015.1
20260903185603 70 187 3.0 15.0 0.00 0.00 0.00 38 1014.8
20260903185503 69 187 5.0 15.0 0.00 0.00 0.00 38 1014.9
20260903185403 69 191 8.0 15.0 0.00 0.00 0.00 38 1015.0
20260903185306 69 198 5.0 15.0 0.00 0.00 0.00 38 1014.9
20260903185203 69 204 7.0 16.0 0.00 0.00 0.00 38 1015.2
20260903185103 70 193 4.0 16.0 0.00 0.00 0.00 38 1015.1
20260903185018 69 207 3.0 16.0 0.00 0.00 0.00 38 1015.0
20260903185005 69 209 3.0 16.0 0.00 0.00 0.00 38 1015.0
20260903184917 69 203 8.0 16.0 0.00 0.00 0.00 38 1015.2
20260903184903 69 196 8.0 16.0 0.00 0.00 0.00 38 1015.2
20260903184603 69 200 6.0 13.0 0.00 0.00 0.00 38 1015.1
20260903184503 69 194 4.0 13.0 0.00 0.00 0.00 39 1015.0
20260903184418 69 198 5.0 13.0 0.00 0.00 0.00 38 1015.0
20260903184403 69 202 5.0 13.0 0.00 0.00 0.00 38 1015.0
20260903184310 69 210 5.0 13.0 0.00 0.00 0.00 38 1015.3
20260903184103 69 204 8.0 13.0 0.00 0.00 0.00 38 1015.0
20260903184004 69 202 7.0 14.0 0.00 0.00 0.00 38 1015.1
20260903183903 69 211 5.0 14.0 0.00 0.00 0.00 39 1015.0
20260903183817 68 222 8.0 14.0 0.00 0.00 0.00 38 1015.2
20260903183803 68 225 8.0 14.0 0.00 0.00 0.00 38 1015.2
20260903183703 69 243 5.0 14.0 0.00 0.00 0.00 38 1015.2
20260903183503 69 260 6.0 11.0 0.00 0.00 0.00 39 1015.3
20260903183418 69 257 8.0 11.0 0.00 0.00 0.00 38 1015.4
20260903183403 69 255 8.0 11.0 0.00 0.00 0.00 38 1015.4
20260903183303 69 245 5.0 11.0 0.00 0.00 0.00 39 1015.1
20260903183217 69 237 5.0 11.0 0.00 0.00 0.00 40 1015.1
20260903183103 68 228 6.0 11.0 0.00 0.00 0.00 39 1015.1
20260903182903 68 218 8.0 14.0 0.00 0.00 0.00 39 1015.0
20260903182803 69 218 8.0 14.0 0.00 0.00 0.00 38 1015.0
20260903182704 69 219 6.0 14.0 0.00 0.00 0.00 39 1015.3
20260903182616 69 222 4.0 14.0 0.00 0.00 0.00 38 1015.1
20260903182603 69 224 4.0 14.0 0.00 0.00 0.00 38 1015.1
20260903182503 68 229 4.0 14.0 0.00 0.00 0.00 39 1015.1
20260903182306 68 251 5.0 15.0 0.00 0.00 0.00 38 1015.3
20260903182203 69 252 4.0 15.0 0.00 0.00 0.00 38 1015.3
20260903182117 68 257 5.0 15.0 0.00 0.00 0.00 38 1015.5
20260903182103 68 261 5.0 15.0 0.00 0.00 0.00 38 1015.5
20260903182003 68 260 4.0 16.0 0.00 0.00 0.00 37 1015.5
20260903181803 69 250 7.0 16.0 0.00 0.00 0.00 36 1015.5
20260903181703 69 254 6.0 16.0 0.00 0.00 0.00 37 1015.4
20260903181604 68 247 10.0 16.0 0.00 0.00 0.00 37 1015.1
20260903181503 68 241 10.0 16.0 0.00 0.00 0.00 38 1015.2
20260903181403 68 241 8.0 16.0 0.00 0.00 0.00 39 1015.3
20260903181303 68 241 11.0 16.0 0.00 0.00 0.00 38 1015.3
20260903181203 68 237 10.0 16.0 0.00 0.00 0.00 39 1015.3
20260903181103 69 223 7.0 14.0 0.00 0.00 0.00 39 1015.2
20260903181003 69 210 8.0 14.0 0.00 0.00 0.00 40 1015.4
20260903180904 68 212 5.0 15.0 0.00 0.00 0.00 40 1015.3
20260903180803 68 217 6.0 15.0 0.00 0.00 0.00 40 1015.4
20260903180703 68 217 5.0 15.0 0.00 0.00 0.00 40 1015.3
20260903180603 68 238 5.0 16.0 0.00 0.00 0.00 41 1015.3
20260903180503 68 249 8.0 16.0 0.00 0.00 0.00 40 1015.4
20260903180403 68 250 8.0 16.0 0.00 0.00 0.00 41 1015.2
20260903180303 69 248 5.0 16.0 0.00 0.00 0.00 40 1015.3
20260903180203 68 251 4.0 16.0 0.00 0.00 0.00 40 1015.2
20260903180003 68 254 6.0 11.0 0.00 0.00 0.00 40 1015.4
20260903175903 69 276 3.0 11.0 0.00 0.00 0.00 40 1015.3
20260903175803 69 274 4.0 11.0 0.00 0.00 0.00 40 1015.4
20260903175703 69 264 4.0 11.0 0.00 0.00 0.00 40 1015.3
20260903175603 68 256 4.0 11.0 0.00 0.00 0.00 40 1015.5
20260903175517 68 241 7.0 11.0 0.00 0.00 0.00 40 1015.5
20260903175503 68 237 7.0 11.0 0.00 0.00 0.00 40 1015.4
20260903175403 68 227 4.0 11.0 0.00 0.00 0.00 41 1015.4
20260903175203 68 225 6.0 11.0 0.00 0.00 0.00 41 1015.2
20260903175103 68 229 5.0 11.0 0.00 0.00 0.00 41 1015.4
20260903175003 68 237 8.0 13.0 0.00 0.00 0.00 41 1015.3
20260903174918 68 231 4.0 14.0 0.00 0.00 0.00 41 1015.2
20260903174903 68 229 4.0 14.0 0.00 0.00 0.00 41 1015.2
20260903174803 68 234 4.0 14.0 0.00 0.00 0.00 41 1015.3
20260903174618 68 230 6.0 14.0 0.00 0.00 0.00 41 1015.2
20260903174603 68 227 6.0 14.0 0.00 0.00 0.00 41 1015.2
20260903174503 68 222 8.0 14.0 0.00 0.00 0.00 41 1015.3
20260903174303 68 219 6.0 14.0 0.00 0.00 0.00 42 1015.2
20260903174203 68 225 9.0 14.0 0.00 0.00 0.00 42 1015.3
20260903174103 69 233 5.0 13.0 0.00 0.00 0.00 42 1015.5
20260903174003 68 231 5.0 13.0 0.00 0.00 0.00 42 1015.3
20260903173803 67 235 4.0 13.0 0.00 0.00 0.00 43 1015.2
20260903173705 67 227 6.0 13.0 0.00 0.00 0.00 44 1015.3
20260903173603 67 207 6.0 13.0 0.00 0.00 0.00 43 1015.2
20260903173503 67 219 7.0 13.0 0.00 0.00 0.00 43 1015.2
20260903173403 67 208 5.0 11.0 0.00 0.00 0.00 43 1015.2
20260903173303 67 215 4.0 11.0 0.00 0.00 0.00 43 1015.4
20260903173103 67 224 6.0 11.0 0.00 0.00 0.00 43 1015.4
20260903173003 67 218 4.0 11.0 0.00 0.00 0.00 43 1015.3
20260903172903 67 233 7.0 14.0 0.00 0.00 0.00 43 1015.4
20260903172803 67 244 7.0 14.0 0.00 0.00 0.00 43 1015.3
20260903172703 67 242 5.0 14.0 0.00 0.00 0.00 43 1015.5
20260903172603 67 251 4.0 14.0 0.00 0.00 0.00 44 1015.3
20260903172503 67 255 7.0 14.0 0.00 0.00 0.00 44 1015.3
20260903172403 67 248 8.0 14.0 0.00 0.00 0.00 43 1015.2
20260903172306 68 240 6.0 13.0 0.00 0.00 0.00 43 1015.3
20260903172203 68 232 4.0 14.0 0.00 0.00 0.00 43 1015.2
20260903172103 68 224 4.0 14.0 0.00 0.00 0.00 43 1015.0
20260903172003 67 215 4.0 14.0 0.00 0.00 0.00 43 1015.2
20260903171903 68 212 5.0 14.0 0.00 0.00 0.00 43 1015.4